GFSWCAN_prec_cthk_000.txt.gz
RH
94 91 84 70 65 64 65 66 65 63 59 54 49 45 43 42 43 43 42 41 40 38 37 35 34 32 32 33 38 39 47 51 57 63 67 72 76 74 75 69 71 75 80 82 90 93 85 72 79 85 80 75 79 82
95 93 90 85 70 65 65 65 66 67 65 62 59 54 49 47 46 45 45 45 44 43 39 38 36 36 36 38 42 45 46 50 56 62 69 75 83 82 79 82 73 81 73 83 85 85 73 76 86 85 83 84 84 84
96 95 94 90 81 70 66 68 67 66 67 67 65 61 58 54 52 50 49 48 47 46 44 42 40 40 40 45 48 51 55 60 62 66 72 78 82 82 86 85 85 78 81 86 88 74 76 83 85 87 89 90 87 87
96 97 97 93 89 82 72 71 67 66 65 65 65 64 63 60 59 57 55 53 51 50 49 44 41 42 44 49 50 55 60 64 68 73 77 81 82 84 89 89 90 86 85 86 86 77 80 88 89 89 90 84 87 88
96 98 99 97 96 95 87 77 75 71 66 63 63 63 63 63 61 60 61 59 57 51 49 43 40 40 45 49 56 59 63 70 75 82 83 84 83 93 95 94 91 86 89 90 81 88 95 92 88 87 84 77 72 63
94 98 99 97 96 98 92 87 86 79 74 71 61 58 60 61 62 61 59 56 55 54 53 51 45 44 50 50 52 58 69 79 81 82 83 84 88 95 94 89 83 83 82 83 88 89 84 81 80 80 74 62 60 56
92 96 96 98 98 98 94 88 88 86 77 76 72 64 57 55 56 57 52 48 47 53 57 58 54 49 43 45 53 67 79 84 87 89 88 89 92 97 94 89 83 77 81 85 82 77 74 73 74 65 63 58 54 51
86 91 95 98 98 99 99 99 97 96 93 84 79 78 74 71 70 68 71 69 65 68 70 72 70 66 65 67 75 79 83 87 89 91 91 92 95 97 95 84 83 81 77 76 71 64 64 64 60 55 47 46 43 41
79 87 91 93 98 98 98 99 99 99 98 98 98 96 95 91 86 80 86 88 83 83 82 86 86 87 85 85 90 88 88 90 90 92 92 94 95 95 88 81 77 75 70 64 61 60 57 54 50 47 49 48 49 45
71 86 85 83 87 91 96 97 98 98 99 98 99 99 97 97 97 98 99 99 99 96 94 90 89 91 92 96 98 98 96 95 92 88 92 92 89 84 84 79 71 68 66 66 66 57 52 48 48 48 46 43 43 41
73 83 87 81 76 79 83 86 91 95 98 99 99 98 97 99 99 99 99 98 97 92 91 92 94 96 97 98 99 99 96 97 94 88 92 88 86 81 75 74 70 65 62 60 57 53 51 48 47 45 42 44 47 40
74 81 86 85 78 81 79 79 82 86 88 94 97 98 99 98 98 97 96 97 92 90 88 89 88 89 92 93 95 95 92 95 95 91 92 85 76 75 72 66 61 60 59 56 53 45 43 44 44 45 47 47 43 41
72 84 88 89 82 81 84 84 83 85 87 86 84 89 91 94 94 90 85 86 90 89 87 85 85 86 86 90 95 96 95 91 87 87 83 77 64 54 53 52 52 53 49 43 42 44 43 43 44 40 39 41 44 42
75 87 94 91 87 86 86 88 86 84 83 81 83 89 87 87 84 79 76 74 76 78 80 82 85 88 89 91 91 90 90 90 91 85 65 58 52 54 55 55 51 46 44 42 42 39 37 38 36 36 39 44 45 44
82 81 93 93 90 88 85 89 92 91 87 81 75 80 78 77 81 81 78 79 80 82 82 82 82 84 86 87 84 86 83 77 67 60 60 56 55 53 51 49 46 42 40 39 42 41 36 37 40 39 37 41 48 52
95 86 89 94 93 91 90 90 90 90 88 85 80 77 77 80 80 78 78 81 82 83 82 82 83 83 85 84 81 79 78 67 59 59 55 54 51 51 48 45 43 40 40 40 38 39 41 41 42 43 43 49 52 55
98 89 90 90 91 93 91 90 90 90 89 80 73 74 73 72 71 74 76 82 85 87 84 80 75 72 70 74 73 65 59 57 55 52 48 52 52 49 44 37 35 37 39 41 43 43 44 46 49 50 49 50 57 62
98 99 97 95 88 89 90 87 85 85 79 76 75 73 75 74 72 70 70 70 72 71 68 68 63 63 63 61 56 54 52 51 45 44 44 45 40 37 39 40 40 42 42 43 47 47 50 53 53 53 53 54 57 63
98 98 97 96 92 89 85 84 82 76 73 74 74 75 76 76 73 70 69 70 68 69 69 68 68 61 52 50 50 51 49 46 44 41 39 37 37 40 43 44 44 45 48 51 52 52 52 54 57 59 58 62 65 68
99 97 95 92 89 83 81 81 79 74 69 70 71 72 70 68 66 65 64 63 65 66 65 61 53 51 54 54 51 51 51 50 47 41 34 34 41 44 46 47 48 51 51 53 53 54 52 53 59 60 63 73 75 73
95 94 89 88 88 85 84 76 75 74 73 71 74 72 69 68 66 65 64 65 66 61 62 60 58 57 52 49 50 48 45 46 44 45 42 36 37 42 44 51 53 55 55 54 55 55 57 61 59 59 68 76 78 81
90 94 93 91 86 85 85 80 80 79 75 76 76 76 73 72 73 73 71 67 62 58 56 47 43 44 45 45 46 46 46 45 43 43 44 45 41 43 48 54 56 59 61 62 62 60 59 64 62 62 69 76 78 81
92 91 89 88 84 83 90 83 83 81 81 80 80 78 76 76 71 67 63 59 56 48 44 43 44 46 45 44 44 42 44 44 42 43 45 48 51 53 55 62 67 66 63 64 65 63 64 68 70 70 71 76 80 81
92 92 92 92 87 89 88 88 89 90 89 86 82 77 71 67 67 67 61 54 50 44 42 42 42 40 41 40 40 44 48 50 49 50 55 57 60 64 69 70 73 74 76 72 74 73 72 73 78 80 80 79 82 85
94 96 90 91 90 87 84 83 81 78 76 77 77 75 71 73 72 66 57 45 42 41 39 39 39 40 41 46 48 51 58 60 61 62 66 71 72 72 75 79 80 85 87 84 81 78 78 79 81 84 87 88 85 88
88 86 81 79 83 82 82 82 81 82 82 81 77 74 72 72 68 57 48 43 42 42 44 45 46 49 55 60 60 60 60 66 68 65 64 77 80 83 82 80 81 85 89 91 88 82 82 81 79 81 84 90 92 91
83 82 81 81 79 78 77 76 75 75 77 78 76 77 76 74 63 52 49 51 53 58 61 59 58 59 60 63 66 68 71 73 74 74 74 75 83 91 92 91 92 90 89 88 86 88 85 80 78 79 82 86 93 97
81 82 83 85 85 83 81 82 82 82 80 80 78 77 72 64 59 58 63 67 71 71 69 69 68 68 66 67 70 72 75 79 81 81 84 88 93 97 98 97 96 93 92 93 90 87 86 84 83 84 85 85 87 93
81 82 85 88 89 88 85 85 81 76 76 76 75 74 70 70 72 74 72 71 68 67 68 69 70 74 70 74 76 78 81 83 86 87 89 89 91 95 95 95 96 96 95 91 90 90 90 89 86 86 86 88 90 91
89 92 92 89 88 84 80 83 76 76 76 76 75 73 72 75 78 74 72 73 75 75 75 74 74 73 75 79 81 86 91 93 93 93 94 94 95 96 97 96 95 95 95 93 92 91 91 90 90 90 88 87 87 90
91 92 92 91 87 81 82 80 77 74 70 66 67 68 66 69 69 67 64 65 68 70 76 78 78 79 80 83 86 91 94 94 94 94 96 96 97 98 98 98 97 96 94 92 90 88 88 89 88 85 84 85 87 88
87 87 86 80 68 62 59 57 51 48 44 41 34 32 35 41 50 54 54 56 57 61 67 77 86 90 90 89 90 91 92 92 95 95 96 96 98 98 98 98 97 95 92 89 88 86 86 83 80 79 80 81 81 84
65 64 63 62 55 51 52 48 43 38 33 32 35 40 48 61 71 73 88 94 96 93 90 86 87 92 94 95 94 95 96 96 96 97 98 98 99 99 97 94 91 88 86 85 83 79 75 74 75 76 78 80 83 87

GFSWCAN_prec_cthk_003.txt.gz
RH
98 97 93 85 74 67 62 57 53 52 49 44 41 39 39 40 40 41 41 41 39 36 37 35 34 34 35 35 38 38 41 45 51 55 58 61 65 63 64 63 65 66 77 80 86 86 82 68 74 81 82 87 89 88
96 96 94 88 79 70 68 65 61 59 58 55 51 47 43 41 41 41 43 44 44 44 42 41 38 37 35 35 34 39 41 44 46 51 59 64 69 71 70 74 67 73 74 82 84 78 75 77 79 83 88 93 90 89
95 97 96 93 90 82 69 68 68 67 66 65 63 60 55 50 46 45 45 46 46 46 47 46 44 42 40 38 38 39 44 46 46 50 58 64 69 70 77 78 76 72 80 88 88 80 79 81 89 92 90 88 91 92
94 96 98 95 94 91 79 70 68 68 69 70 69 66 64 62 58 54 51 50 51 51 52 50 48 47 46 45 44 44 46 48 50 55 61 70 74 73 81 81 80 78 89 88 85 77 81 84 92 93 90 89 83 72
90 93 97 97 96 94 91 79 69 68 67 68 69 70 71 71 70 66 61 58 57 56 56 52 50 49 48 46 44 44 46 50 53 60 68 76 79 85 86 88 87 90 89 93 87 87 88 90 90 91 87 79 67 64
80 92 97 97 96 96 95 90 78 71 70 70 70 72 71 72 72 70 68 64 62 60 60 59 50 46 44 43 46 47 51 53 58 61 72 79 83 89 93 91 88 87 89 91 91 87 92 92 88 78 70 64 56 49
60 85 94 97 98 97 98 96 89 85 79 76 73 74 71 70 69 70 67 63 63 63 63 60 52 47 43 42 44 48 52 57 64 77 81 86 92 95 94 94 87 92 94 89 90 87 85 83 76 68 63 54 47 47
44 66 85 94 97 98 99 98 95 96 94 89 85 83 77 76 73 66 65 62 59 58 56 58 54 49 49 53 60 64 70 76 83 88 90 93 93 93 91 90 90 92 89 88 86 82 78 75 71 65 56 49 46 43
41 48 78 89 96 97 99 98 98 98 98 97 95 88 84 83 80 71 71 64 59 61 64 64 63 67 65 67 70 74 83 92 93 93 93 94 92 90 89 88 89 87 87 86 77 73 71 67 62 56 51 46 40 37
44 44 56 84 91 98 98 99 98 99 99 99 98 98 96 89 88 88 96 95 95 85 89 82 77 81 86 89 92 95 96 96 94 90 90 87 85 87 85 87 86 85 81 75 71 64 56 51 51 45 40 39 43 41
51 48 48 74 84 92 96 98 99 99 99 99 99 98 97 98 99 99 99 96 94 92 86 86 90 91 94 96 98 98 99 97 92 87 91 86 80 82 81 81 79 74 67 59 54 51 48 44 40 37 36 34 31 32
62 58 56 56 78 82 92 97 98 99 98 98 99 98 99 99 99 99 98 97 96 92 90 92 96 98 98 97 97 98 98 97 94 89 91 85 79 80 78 76 65 57 52 49 48 44 41 42 41 37 33 32 34 35
69 66 65 67 68 83 86 90 95 96 98 96 97 99 97 97 98 93 93 92 92 92 93 94 96 96 97 97 97 96 96 94 91 91 86 79 71 68 61 54 48 48 48 46 44 44 40 35 33 33 34 37 38 35
71 74 72 82 71 84 90 92 92 95 96 95 93 97 94 95 92 89 87 87 87 88 90 90 92 93 94 95 96 94 95 93 94 90 76 67 55 51 49 49 48 47 47 43 39 36 34 33 32 32 36 38 39 38
78 77 77 86 85 80 94 95 93 91 91 88 87 93 92 90 90 89 86 86 87 89 90 90 91 92 94 95 93 93 95 90 83 71 60 54 51 50 49 48 47 45 42 39 35 33 34 35 36 33 35 37 42 43
98 84 78 89 97 92 91 92 93 88 91 81 81 81 82 82 81 82 83 83 85 88 89 90 89 91 91 90 90 89 87 79 71 63 56 52 50 51 51 46 42 39 34 33 35 37 37 38 39 38 37 43 45 49
93 83 79 87 95 97 98 97 92 93 91 84 79 77 77 76 78 81 83 84 86 90 89 88 89 88 90 93 93 85 75 64 56 54 53 50 49 47 42 36 31 31 34 38 39 38 39 42 42 44 43 43 47 51
98 93 91 88 95 97 97 95 95 95 89 83 80 78 77 75 75 76 75 79 82 82 82 81 75 74 72 69 63 59 59 58 56 52 47 46 44 38 35 34 35 39 40 39 41 41 42 46 46 45 46 50 50 51
98 93 91 90 91 94 92 94 91 84 82 81 80 80 81 80 79 79 81 82 81 79 77 74 73 68 61 58 58 58 59 55 50 47 42 41 40 40 41 42 43 42 41 42 43 44 47 50 52 52 52 55 54 57
99 99 99 98 98 91 88 87 83 79 75 79 79 80 79 78 79 78 78 79 79 77 76 71 62 57 57 55 55 55 53 51 46 41 37 39 44 46 47 47 43 42 43 44 47 52 53 53 57 56 57 61 60 59
99 98 98 99 94 89 86 81 80 77 78 78 79 78 77 76 75 75 75 74 73 70 66 58 56 56 54 54 55 52 50 48 45 44 42 38 40 42 42 44 45 46 47 51 55 59 64 62 59 60 62 66 69 69
98 98 98 94 90 86 80 79 77 76 74 73 72 72 71 72 72 72 72 70 65 64 63 54 48 47 45 45 45 45 45 44 44 44 43 42 39 38 40 46 50 51 58 66 68 67 67 70 70 70 71 70 72 75
97 96 91 90 85 80 79 71 67 66 67 69 69 69 68 70 70 70 68 65 61 56 49 47 47 45 43 41 41 41 41 42 42 43 44 45 45 46 48 53 60 62 66 73 77 76 77 78 76 75 75 75 76 77
97 94 88 83 77 77 72 75 79 79 79 80 81 80 76 72 71 69 62 58 55 50 47 43 41 39 37 36 36 40 43 45 45 44 50 53 54 57 63 65 72 75 78 78 82 84 85 84 84 82 81 79 77 78
87 92 83 80 80 82 84 86 88 85 82 81 77 71 68 68 66 63 58 53 46 43 41 40 40 38 39 40 43 47 52 53 53 50 52 67 65 60 61 72 80 86 90 90 90 91 91 89 87 84 84 81 76 76
89 89 84 82 85 81 82 79 78 77 77 77 75 74 73 72 70 62 54 48 46 47 46 46 48 52 51 53 56 60 62 64 65 63 60 71 72 74 74 77 82 93 97 95 95 95 91 91 91 88 83 82 82 82
80 77 77 75 73 72 72 74 74 72 72 71 72 75 77 76 70 61 55 54 55 56 58 63 66 67 66 64 64 63 64 67 69 69 71 75 81 86 86 88 91 94 92 94 97 97 96 94 90 86 85 85 84 81
76 75 73 72 70 68 70 72 74 75 76 75 75 77 76 72 70 69 69 70 71 72 75 77 78 74 70 68 70 69 68 70 71 74 78 82 88 90 93 95 97 98 97 96 96 95 96 94 92 90 89 85 81 81
76 74 74 78 80 81 80 80 80 80 79 78 78 77 76 75 74 74 75 76 73 71 71 72 74 79 81 82 83 80 76 74 74 76 82 89 97 99 98 99 98 98 98 99 99 98 97 94 92 92 90 87 85 85
80 81 83 85 85 83 81 83 80 82 80 79 78 77 77 76 72 67 66 66 63 57 53 52 54 57 64 69 77 83 82 82 84 87 89 92 94 96 97 98 98 98 98 98 98 97 96 95 95 93 91 89 89 85
89 90 90 89 85 86 87 84 79 77 74 69 64 59 52 55 54 50 46 45 49 55 63 69 70 66 63 67 73 83 90 90 90 91 93 94 96 97 96 97 98 98 98 97 94 91 89 87 85 85 85 82 78 77
93 93 90 86 78 72 66 62 58 53 47 44 40 39 37 41 48 49 51 59 64 68 71 75 81 88 91 89 86 86 91 94 94 94 95 95 96 97 97 98 98 97 95 92 89 85 80 78 79 79 79 79 79 80
63 62 63 65 61 57 55 51 46 40 36 34 35 40 44 51 56 59 63 66 68 71 76 80 87 87 87 91 93 92 92 94 96 96 97 97 96 96 97 97 96 94 91 88 86 83 79 78 79 79 79 78 78 78

GFSWCAN_prec_cthk_006.txt.gz
RH
97 97 92 86 77 62 52 48 46 46 47 43 41 38 37 39 40 42 40 40 38 36 37 35 34 33 34 34 36 38 41 41 44 49 52 51 53 48 49 47 52 57 70 78 80 84 88 72 75 86 79 78 85 87
96 97 96 91 87 75 63 55 50 48 48 46 43 41 40 41 42 42 44 43 42 41 40 38 36 35 33 34 34 37 37 34 40 46 50 52 54 56 58 58 54 61 63 68 75 70 76 79 84 80 83 85 89 90
97 95 96 96 94 84 74 65 58 53 52 51 49 46 46 45 44 44 44 46 46 46 47 45 43 41 38 37 35 37 37 38 40 42 47 52 55 53 59 61 65 64 69 74 78 72 79 84 83 83 85 88 86 88
92 95 95 96 94 90 84 76 68 61 58 57 56 56 54 53 51 48 47 47 47 47 49 48 46 46 44 43 42 40 39 39 41 46 51 52 52 52 63 63 67 71 76 76 78 78 81 82 86 85 87 91 89 78
83 90 93 95 96 93 88 80 70 68 64 64 65 64 64 65 64 62 58 54 52 50 54 52 51 50 50 48 47 45 44 45 46 51 52 53 54 60 66 73 76 77 76 86 88 86 88 87 85 92 93 83 73 64
66 78 90 94 97 96 93 86 80 74 69 69 70 71 71 72 72 73 71 68 63 60 60 63 59 54 51 48 47 46 47 46 47 50 54 55 53 62 75 80 75 79 79 84 88 90 90 90 89 84 79 72 68 60
54 61 76 90 97 97 95 94 93 88 75 73 73 72 73 74 75 77 75 71 71 70 67 67 64 55 53 52 51 51 50 51 51 55 57 60 67 80 85 84 85 85 84 85 90 92 91 90 85 75 71 65 59 55
48 51 59 84 93 96 97 97 98 94 87 81 78 78 76 76 76 76 74 71 71 73 72 74 66 57 53 54 53 51 54 57 61 67 70 73 81 91 91 83 85 84 84 88 88 91 91 83 72 69 62 55 49 46
47 47 48 63 87 93 96 98 97 97 97 95 91 89 87 80 75 75 80 81 79 72 67 62 58 57 51 52 55 58 62 68 71 76 81 90 93 93 89 87 83 87 91 94 90 85 75 69 60 51 46 44 42 40
43 41 40 47 69 89 92 95 96 99 100 99 99 98 93 88 88 91 91 85 85 83 78 68 64 62 58 62 69 79 85 89 89 87 90 88 85 87 86 82 83 85 90 84 78 69 56 46 43 42 40 39 35 30
45 41 42 39 49 73 89 94 98 100 99 99 98 98 97 98 99 99 99 96 91 83 81 78 80 84 85 89 92 96 97 95 92 87 90 84 78 80 79 83 84 81 78 68 54 45 43 44 42 40 40 32 27 29
46 44 43 36 38 54 84 94 99 98 98 97 97 99 99 99 99 99 98 98 94 93 89 90 95 95 94 97 98 98 99 97 95 88 92 82 73 76 78 79 77 70 56 47 44 44 43 42 43 37 28 28 30 31
48 46 47 44 42 47 70 96 97 98 99 99 99 99 98 98 98 98 96 94 92 89 90 92 95 97 98 96 98 98 98 96 91 91 83 77 74 77 78 76 62 54 48 45 45 45 45 43 34 30 31 33 32 31
55 54 51 50 48 50 56 84 98 98 98 98 98 98 98 97 98 97 97 97 97 96 96 96 96 95 96 95 97 97 96 94 94 90 81 72 73 73 65 59 53 51 49 46 46 45 40 30 30 33 33 35 35 35
58 55 59 58 57 56 66 81 94 97 98 97 94 98 97 97 96 96 94 94 95 95 96 97 97 95 96 96 95 97 97 94 87 78 72 69 65 61 57 52 53 52 48 46 41 33 31 34 34 31 33 35 38 38
70 63 61 63 64 66 69 88 89 98 93 88 91 96 97 97 96 96 96 94 93 95 97 96 96 96 95 95 94 94 91 82 78 77 74 69 62 57 55 55 52 45 38 32 30 34 37 37 36 34 33 37 37 40
75 67 68 65 72 77 80 86 85 91 98 88 87 89 90 90 91 91 90 91 92 94 95 92 94 93 94 95 93 88 85 79 75 70 63 56 55 56 54 47 37 31 32 34 37 39 38 39 38 38 38 37 41 44
89 91 84 77 75 89 95 95 96 88 82 87 86 88 88 86 85 86 85 86 86 86 84 84 80 84 82 81 79 74 69 63 58 57 56 54 53 49 43 36 35 38 38 38 39 38 38 39 41 45 45 44 43 45
96 98 95 90 87 96 98 98 97 92 90 88 87 84 82 82 82 82 84 87 89 88 82 82 81 74 71 68 67 64 61 59 59 57 55 50 41 38 41 42 40 39 40 40 40 41 42 43 47 51 54 54 51 53
96 99 99 95 93 89 90 92 90 84 83 83 82 82 81 80 79 79 80 82 81 79 80 77 72 70 69 65 63 61 59 58 53 47 45 46 46 44 43 42 41 40 40 40 42 43 46 50 57 62 65 68 66 64
96 99 96 94 92 86 82 84 83 80 77 75 75 75 75 73 73 72 72 73 73 72 69 64 60 60 58 58 58 56 52 47 43 42 42 43 45 43 40 41 40 40 42 44 47 50 57 63 69 70 71 73 74 71
96 99 99 98 96 94 88 83 81 75 72 73 69 68 67 65 65 64 63 63 62 60 59 56 55 54 54 52 49 47 45 43 41 39 38 38 37 39 39 42 43 45 49 53 56 59 67 75 77 80 80 80 78 75
99 98 98 96 94 91 91 80 72 68 65 64 63 62 61 61 60 59 58 59 58 56 50 49 50 49 48 47 44 41 38 37 37 39 41 43 43 44 46 49 55 56 57 60 66 72 79 85 85 86 88 85 82 78
98 96 92 88 84 83 74 72 67 63 62 61 60 60 59 61 62 63 62 61 56 51 49 47 47 46 43 41 40 41 41 42 43 45 51 56 54 51 57 56 57 60 63 64 73 81 87 90 92 92 91 87 85 82
92 94 87 82 78 74 72 69 67 64 64 66 68 67 67 68 66 61 56 52 47 45 46 46 47 47 47 47 47 49 52 54 55 54 55 63 62 57 56 62 68 73 77 79 83 89 94 94 95 96 96 95 91 85
85 86 78 76 76 70 69 68 68 67 66 67 69 67 68 68 66 58 55 55 52 51 51 52 52 52 54 56 57 61 65 68 66 61 58 63 66 67 67 71 75 81 88 89 92 95 97 97 97 98 95 96 93 90
84 77 76 71 68 65 65 66 65 66 66 68 68 68 68 69 64 59 58 57 58 57 58 58 59 61 63 65 68 69 70 71 71 70 71 73 76 75 74 79 83 88 92 94 96 97 97 97 97 97 96 95 94 92
75 69 64 65 63 63 64 62 61 61 62 64 66 72 73 71 68 68 66 66 69 69 71 73 74 73 71 68 66 63 63 67 73 78 78 79 83 83 81 84 91 97 98 98 98 97 98 99 98 98 98 96 93 92
74 70 70 71 71 71 68 65 65 67 67 70 74 77 78 76 76 77 78 78 75 72 68 63 59 51 44 43 49 52 55 58 64 72 75 80 91 89 91 95 98 99 99 98 99 99 98 98 97 97 95 92 89 87
76 74 75 75 77 77 76 74 75 75 75 78 80 82 84 83 81 75 69 63 56 51 48 44 45 48 52 56 60 65 67 67 68 79 81 87 95 95 94 96 98 98 98 98 99 99 98 97 96 94 92 88 85 80
78 80 81 81 81 83 81 80 81 82 82 80 79 77 74 67 60 55 50 47 46 45 48 56 59 59 62 64 66 70 76 81 84 86 88 89 94 97 96 96 97 98 99 98 98 97 95 92 89 87 86 84 81 77
81 84 82 79 75 70 66 60 57 55 54 53 54 48 46 48 49 47 47 51 54 59 63 65 65 66 69 73 75 78 80 82 84 87 90 92 93 96 98 98 99 98 98 98 97 95 92 88 86 85 83 79 75 75
56 55 54 56 56 56 53 47 45 41 38 39 42 45 49 54 58 59 60 61 66 69 70 71 71 71 71 72 78 81 84 85 87 89 91 93 94 94 95 97 98 98 98 99 98 96 92 88 84 82 79 77 75 75

GFSWCAN_prec_cthk_009.txt.gz
RH
96 90 82 71 55 52 55 56 56 56 54 51 48 43 40 39 40 42 41 38 39 39 39 43 43 42 39 39 42 40 39 40 42 44 46 45 50 41 40 36 43 49 60 65 69 78 79 65 67 78 77 81 83 81
99 95 90 81 67 57 51 51 51 50 51 52 48 44 41 40 40 42 46 42 39 41 41 37 37 36 36 39 40 37 38 35 36 41 44 46 48 50 46 46 39 43 47 58 68 66 68 73 77 82 83 85 87 86
98 99 97 91 83 73 60 53 49 48 47 47 48 45 42 41 41 42 45 46 46 44 44 44 42 38 36 35 36 37 38 38 37 40 42 45 49 45 51 47 40 38 46 60 69 66 70 73 81 85 86 85 81 83
98 98 99 98 94 89 83 68 57 52 49 48 48 48 46 45 45 45 47 48 49 49 49 50 45 43 40 39 38 39 40 37 40 40 43 46 48 46 51 42 43 43 50 63 69 72 73 77 84 86 85 82 81 79
91 97 98 98 96 93 89 84 73 63 57 53 52 50 51 51 50 49 49 49 49 51 53 50 47 45 46 45 45 44 44 45 46 47 48 49 49 51 54 54 45 43 56 71 80 79 78 86 89 92 91 87 80 70
81 88 94 95 96 94 93 90 84 77 69 63 59 57 57 57 59 60 65 58 57 54 53 55 53 50 50 51 52 52 52 53 53 55 52 51 53 52 60 56 41 51 59 73 80 85 84 87 89 96 90 79 71 63
60 67 77 88 90 92 94 92 90 83 78 78 71 66 66 66 67 73 72 70 68 67 67 67 63 57 56 59 58 59 57 57 55 56 56 53 54 58 63 57 53 60 73 82 82 83 82 92 93 86 79 71 61 50
45 51 59 69 82 89 93 93 91 90 87 80 76 73 73 75 75 77 76 74 78 79 77 78 73 65 62 64 65 63 63 60 59 58 59 56 60 66 68 55 69 80 82 82 80 84 88 95 89 80 68 53 43 41
41 51 46 52 66 85 89 92 93 94 92 89 87 89 83 77 75 77 81 80 80 81 82 76 71 70 64 65 66 64 62 63 62 63 63 65 69 71 67 75 81 81 83 82 83 84 87 82 71 56 43 43 43 41
40 47 48 48 48 61 81 88 91 95 99 99 99 98 90 84 85 83 87 85 84 79 75 67 66 70 64 63 61 61 62 67 67 65 72 77 74 73 80 84 84 85 84 83 82 78 74 62 46 44 44 44 42 35
39 38 42 47 48 46 63 84 90 97 99 99 98 98 93 92 96 98 96 93 87 79 72 72 74 72 71 74 80 80 80 85 86 80 88 82 73 72 80 81 82 82 84 82 77 66 51 48 47 46 45 42 34 31
41 41 38 37 45 48 50 74 89 97 99 99 98 98 99 99 99 99 98 95 89 85 77 77 81 82 84 86 86 92 98 98 96 86 91 82 72 76 77 77 79 78 76 70 62 52 49 48 45 44 42 34 31 28
38 41 40 39 39 46 50 60 84 96 99 99 98 99 99 98 99 98 95 91 85 80 82 85 88 90 92 97 99 99 98 97 91 91 85 81 77 76 76 78 77 74 68 57 51 50 47 46 43 39 32 30 30 30
44 45 46 44 43 46 49 57 67 91 98 98 98 98 98 98 98 98 95 89 88 88 89 93 97 97 97 98 98 98 97 94 96 93 88 81 77 76 78 79 75 67 57 52 49 46 44 40 33 32 33 33 32 31
35 46 49 49 47 46 50 55 67 77 94 98 98 98 97 97 97 97 98 98 98 98 98 97 98 98 98 98 98 96 97 96 90 86 83 78 78 77 76 71 69 60 54 52 51 46 34 31 33 33 35 34 34 34
33 44 51 53 55 55 54 59 68 75 81 95 97 97 97 97 97 97 97 97 97 98 97 98 98 97 98 97 97 97 97 90 86 84 83 79 77 74 71 66 61 58 54 46 37 33 33 36 36 34 34 35 35 39
35 50 55 57 61 64 62 68 83 86 83 81 90 97 97 95 96 97 95 96 96 98 98 97 97 97 96 97 95 90 90 88 87 83 81 76 71 67 61 58 54 50 43 37 37 38 37 38 37 37 34 35 43 44
38 51 62 63 63 67 71 71 83 86 85 82 88 91 91 91 91 92 92 92 92 92 91 93 89 93 92 92 87 85 81 79 78 72 68 65 63 60 57 51 47 43 42 41 37 36 37 37 39 40 44 48 49 54
50 61 69 70 70 72 77 80 81 81 82 84 84 88 86 85 85 85 86 87 89 91 88 91 93 87 84 79 75 71 71 68 68 67 65 62 57 48 43 42 41 39 37 36 37 38 39 42 45 47 52 58 61 64
58 72 81 82 85 83 81 86 93 90 87 87 87 85 80 78 78 78 80 82 81 83 83 82 79 78 74 71 67 66 64 62 59 56 51 49 47 46 43 42 40 38 36 36 36 39 44 48 51 62 67 70 71 73
76 87 93 95 93 84 86 87 93 90 86 85 82 81 77 73 72 72 72 74 77 74 70 67 67 63 58 55 54 55 54 52 47 46 45 43 44 41 39 40 40 40 40 41 42 45 50 53 56 65 69 74 81 82
93 98 98 97 98 93 86 81 84 82 79 76 72 70 69 67 64 62 61 61 61 58 55 55 54 54 56 54 52 48 45 44 43 42 41 40 42 44 44 45 46 46 50 49 55 51 52 60 65 70 78 84 87 86
98 98 98 98 96 93 93 81 80 77 76 74 69 64 59 56 53 51 51 51 50 47 46 49 49 49 49 48 47 45 43 41 40 40 40 42 44 46 47 51 58 59 55 51 59 60 65 71 75 80 89 91 90 89
98 99 98 98 97 97 90 88 80 75 72 64 58 56 54 55 50 51 52 54 50 47 46 44 45 47 49 47 48 49 48 46 46 48 50 53 55 55 61 60 60 60 64 65 64 67 75 80 85 90 93 92 92 92
98 98 97 94 91 85 83 78 74 69 65 65 62 60 58 56 58 55 54 51 51 51 49 48 49 48 52 57 57 60 58 57 59 60 63 69 70 67 66 66 68 70 72 71 70 72 78 86 88 91 94 95 95 96
94 91 86 82 80 73 69 67 65 63 61 61 61 60 59 61 59 55 52 56 54 55 53 54 57 62 64 67 66 65 65 63 62 64 64 69 70 72 70 72 72 73 80 80 77 78 85 91 95 97 97 97 98 98
85 84 78 72 68 63 62 61 60 60 60 60 59 62 63 59 57 56 59 57 60 59 62 64 64 67 68 68 68 66 63 58 51 46 44 45 51 63 71 76 80 78 79 84 85 86 91 96 97 97 98 98 98 98
78 74 66 64 60 57 54 55 55 56 56 54 56 58 58 58 65 68 65 64 66 69 73 73 74 75 73 65 53 45 40 40 43 47 51 55 59 58 67 82 84 84 88 92 93 94 96 98 98 98 99 99 98 97
73 67 61 58 57 56 55 54 55 55 57 58 65 67 71 71 73 75 76 77 80 80 80 76 66 52 46 45 48 50 48 48 50 54 59 63 63 64 71 80 86 90 94 96 95 95 97 98 98 98 99 99 99 96
66 64 64 62 61 61 65 64 68 67 71 74 78 79 80 81 83 84 83 80 75 66 55 50 48 49 50 53 54 56 56 58 60 62 66 68 70 72 75 80 84 88 92 96 96 97 98 98 99 99 98 96 92 89
71 71 71 71 74 78 77 76 78 81 83 86 87 86 82 78 74 72 66 59 53 48 48 51 56 59 60 60 61 62 62 62 63 66 70 72 75 77 79 84 88 90 92 95 98 99 99 99 99 98 97 94 90 85
72 76 75 75 75 71 65 63 62 59 58 57 61 55 54 54 52 47 48 51 54 58 60 61 63 65 65 66 67 67 66 65 65 67 71 75 77 81 84 87 90 92 94 95 96 98 99 99 99 98 95 90 87 82
54 53 52 52 54 55 55 49 49 46 45 44 45 45 49 55 57 59 59 61 64 66 66 66 65 64 63 62 60 60 60 62 64 69 74 76 77 81 85 87 89 93 96 97 98 99 99 99 98 96 93 89 84 78

GFSWCAN_prec_cthk_012.txt.gz
RH
96 86 76 64 63 63 63 64 62 61 59 54 48 44 40 40 42 43 43 41 42 44 46 50 53 55 54 53 57 52 46 44 44 47 45 42 47 43 39 35 42 45 54 56 56 62 59 49 56 63 67 74 78 79
98 92 77 70 60 58 61 63 62 61 60 53 49 48 47 42 40 42 47 43 41 44 44 44 48 51 49 50 50 46 42 40 39 41 42 43 45 49 47 43 33 45 43 50 50 49 48 57 63 67 71 77 82 86
99 98 93 80 70 58 59 61 61 61 60 57 55 54 50 45 43 43 46 45 46 45 44 42 43 41 42 43 42 43 42 40 38 42 41 43 45 42 46 42 34 36 35 46 49 41 46 57 67 75 78 85 85 83
99 99 97 89 79 68 58 58 59 59 59 59 57 55 52 48 45 44 47 45 48 49 50 49 44 43 41 41 42 41 41 41 43 42 43 42 42 39 47 39 43 37 39 39 44 45 56 66 72 79 84 85 89 88
98 98 98 95 88 81 68 59 56 55 54 54 53 51 50 49 47 46 46 47 50 53 57 53 48 47 45 45 47 45 45 45 47 48 48 46 44 45 51 54 49 37 38 45 50 56 64 73 83 87 87 90 87 79
93 98 98 98 95 88 84 76 66 60 56 53 51 50 49 49 49 49 53 50 52 53 54 54 53 50 49 49 50 50 50 51 52 54 53 51 49 49 59 55 39 39 40 45 53 63 74 85 90 88 85 85 83 79
79 87 96 97 98 97 95 90 86 82 75 64 58 55 53 52 52 56 59 60 56 58 59 61 59 54 53 54 57 58 57 59 57 59 60 57 52 59 64 58 44 43 48 58 66 77 83 86 85 83 78 77 75 69
62 70 78 87 94 95 96 94 92 91 88 82 74 68 64 61 60 61 62 63 69 72 71 74 72 66 64 66 69 69 67 67 65 63 64 63 61 65 67 48 46 49 58 72 79 84 86 85 83 82 77 73 63 54
46 53 56 60 74 86 90 92 93 94 95 94 88 85 80 77 74 69 71 70 72 76 79 76 75 76 71 73 76 77 75 74 72 70 68 66 66 63 48 48 51 68 75 82 85 89 85 85 79 73 63 53 48 47
39 43 50 50 47 59 81 86 89 95 98 97 96 92 86 84 80 76 82 81 80 77 76 71 71 73 72 75 76 76 76 77 73 65 66 64 59 52 52 59 72 80 83 87 89 83 82 79 70 58 50 49 48 46
34 35 39 44 45 39 43 69 81 91 98 99 97 94 92 91 94 92 93 92 84 78 73 69 69 71 74 76 78 78 79 80 79 73 78 74 68 63 71 80 82 86 89 88 85 83 79 69 58 52 50 50 46 41
39 36 34 34 40 45 41 47 74 90 99 99 98 99 100 99 99 99 97 92 84 80 75 75 73 76 80 84 86 88 92 93 88 84 88 79 72 76 79 79 79 85 85 83 79 74 70 60 54 50 49 45 40 36
35 37 36 35 37 42 49 48 53 78 96 99 99 99 99 98 99 98 94 86 83 79 76 76 82 87 91 93 97 98 99 97 94 92 85 82 85 87 83 82 85 82 80 75 75 67 58 51 50 48 43 34 35 37
29 36 39 39 40 41 42 54 61 65 78 97 98 98 98 98 98 97 95 89 86 85 86 89 92 96 97 99 99 98 98 97 97 94 90 94 90 88 89 87 86 82 84 78 66 60 54 52 47 38 34 37 38 35
31 38 42 42 41 42 44 49 54 60 70 81 96 98 97 97 98 97 97 97 96 95 95 97 96 98 97 99 98 98 97 97 96 97 96 90 89 89 88 88 88 84 75 67 61 55 51 42 36 37 38 38 35 35
25 34 43 47 47 47 47 49 54 61 61 74 84 89 96 96 97 97 98 98 98 98 98 98 98 98 98 98 98 98 97 97 99 96 91 87 86 86 85 80 75 71 64 60 56 48 40 38 38 37 35 35 35 36
21 31 41 47 50 52 53 54 62 66 64 63 77 84 86 93 96 97 97 97 97 97 98 97 98 97 96 97 97 97 97 96 93 89 85 84 81 78 75 69 63 60 57 51 45 41 39 37 35 34 33 35 39 42
30 33 42 51 53 54 58 60 68 73 73 75 76 71 78 80 86 90 91 91 92 95 95 95 92 95 95 95 92 93 88 85 84 79 75 71 69 68 64 60 53 48 42 39 37 35 34 33 34 35 38 45 50 54
39 42 45 54 58 59 59 63 66 71 75 79 80 79 77 78 78 81 84 87 89 90 90 90 92 89 86 81 80 77 76 73 70 68 67 64 60 55 48 41 38 37 36 36 35 35 35 37 40 43 47 51 59 67
42 44 48 56 62 67 68 67 67 70 69 70 77 80 79 78 77 76 74 77 79 80 83 86 84 81 79 73 67 65 66 63 59 57 54 49 46 44 42 41 39 39 37 36 37 38 42 44 46 53 58 69 75 76
47 50 55 62 70 72 71 69 73 75 80 90 90 84 80 76 77 75 73 71 72 70 65 63 63 63 60 56 53 52 52 51 50 46 44 43 44 42 40 39 41 42 42 42 44 42 46 50 50 48 55 68 73 75
46 62 65 77 80 76 76 78 80 81 88 91 89 86 82 77 74 72 67 64 61 56 54 52 52 52 53 50 49 47 46 43 42 42 43 43 43 43 45 47 46 45 49 54 57 54 51 56 60 60 63 69 74 79
57 73 78 89 93 86 93 88 86 85 84 84 81 79 73 70 65 58 57 53 50 45 45 47 48 47 47 49 46 43 42 43 45 46 48 50 51 53 55 61 69 70 67 62 61 65 68 69 65 62 67 74 81 84
85 88 94 98 98 98 89 91 86 81 80 81 79 77 68 60 51 52 51 50 50 49 47 46 45 46 46 45 47 53 53 52 52 54 58 61 59 57 61 62 63 68 77 76 74 70 66 67 68 69 74 79 85 89
98 98 98 98 95 94 93 87 84 80 75 76 73 66 62 57 58 53 53 56 58 52 51 49 49 51 57 59 60 63 60 60 61 59 60 63 61 56 50 44 42 46 51 52 57 66 77 77 79 82 84 88 92 94
98 98 98 95 97 96 94 92 87 83 76 70 66 62 57 57 55 52 53 60 55 51 51 53 60 65 68 67 68 68 67 65 64 60 58 52 43 42 44 47 47 49 50 58 65 72 78 82 87 91 92 94 95 98
97 93 93 93 92 87 86 82 76 70 65 60 58 58 55 53 53 56 61 59 55 56 59 62 64 68 72 73 74 72 68 62 50 42 40 44 49 50 52 54 57 57 54 58 70 79 82 85 90 93 95 96 98 98
93 93 89 85 81 76 72 67 62 57 54 54 56 56 55 55 61 62 62 62 62 66 70 73 75 78 78 77 69 56 46 43 45 48 50 56 55 54 58 62 66 67 67 67 73 79 82 88 91 95 96 96 97 98
86 82 74 69 62 58 55 54 53 51 54 54 57 59 63 60 62 64 68 72 77 80 83 85 84 80 68 56 52 50 50 52 52 50 50 52 52 54 58 61 64 67 70 73 78 80 82 86 92 94 97 98 98 97
76 73 69 62 59 62 62 60 61 60 58 62 66 67 68 70 74 76 80 85 87 85 80 72 62 55 53 53 57 60 58 57 57 57 59 59 59 58 58 60 64 68 73 77 80 84 87 90 92 93 95 98 99 99
65 65 66 66 65 67 67 66 65 66 69 75 78 79 77 76 71 68 67 65 62 54 50 50 53 57 60 62 62 60 60 59 59 58 57 56 56 58 60 62 65 70 74 77 83 87 89 92 94 97 98 99 99 99
65 65 64 63 66 65 61 58 56 54 54 53 54 52 52 52 49 46 45 49 53 57 58 61 62 62 59 59 57 53 47 42 39 38 38 39 41 45 50 57 66 72 76 78 82 86 89 93 96 98 99 99 99 98
46 44 43 44 47 47 49 45 46 47 46 46 50 46 48 53 56 56 57 58 61 63 62 59 57 53 50 42 36 37 37 36 36 40 42 42 43 45 46 48 53 63 76 80 84 90 91 92 96 99 99 99 99 96

GFSWCAN_prec_cthk_015.txt.gz
RH
92 83 72 67 58 61 64 62 59 61 62 58 52 46 43 42 43 41 38 37 37 39 42 45 48 46 46 48 54 52 54 52 55 54 50 46 47 43 42 40 43 43 50 51 51 55 54 34 38 43 43 51 61 66
93 84 73 67 62 61 63 64 62 60 62 61 57 53 46 42 41 43 42 40 39 38 38 45 52 54 53 54 50 52 49 47 47 48 46 46 46 47 46 44 37 43 39 46 43 42 35 39 43 44 46 55 66 73
97 89 78 69 66 62 63 65 65 62 61 61 59 54 51 47 41 40 43 43 42 41 40 40 46 50 53 59 54 49 49 46 43 39 41 44 45 43 45 44 33 36 38 44 45 42 44 48 46 47 54 62 71 78
98 97 88 74 67 69 67 63 66 65 63 62 61 54 49 49 49 46 43 43 44 44 46 44 41 41 45 48 48 48 46 47 45 46 49 45 43 39 42 35 39 33 36 38 41 42 45 48 50 56 62 70 83 84
99 97 93 84 76 67 67 69 66 66 64 63 63 59 55 55 53 50 47 45 46 47 49 50 46 46 44 43 45 47 47 47 49 52 53 51 47 47 50 50 47 37 40 46 47 47 45 52 58 65 75 84 86 85
98 99 98 96 87 80 73 65 64 64 65 63 60 60 59 57 55 52 49 46 47 49 49 54 53 51 50 49 50 50 51 51 50 50 53 52 49 50 56 57 43 42 43 46 49 47 49 59 68 78 85 87 83 81
96 98 98 98 94 84 75 66 60 60 61 60 58 57 54 51 50 52 52 54 49 51 52 56 55 52 52 53 53 55 55 55 56 58 59 59 56 60 61 59 48 51 51 51 49 51 63 73 84 86 84 82 79 79
86 89 95 98 98 93 85 82 75 66 59 56 55 54 53 51 51 51 52 52 53 54 55 60 60 57 59 63 66 67 69 70 69 71 71 68 66 68 66 55 53 49 49 52 54 62 74 82 85 88 84 79 75 67
71 75 77 83 96 97 95 93 86 80 75 68 70 68 62 57 56 55 55 55 57 60 61 63 64 67 67 71 76 79 82 83 78 77 77 75 73 69 56 54 52 52 54 59 70 79 87 88 88 85 79 76 67 55
57 57 57 61 69 86 93 94 94 95 94 90 88 89 83 76 72 70 71 70 71 71 71 66 64 68 66 73 78 80 82 83 80 73 75 70 63 59 61 63 64 66 70 82 89 94 92 90 81 81 77 65 55 53
47 50 53 51 49 50 66 81 89 94 98 98 97 96 94 93 92 89 87 84 81 76 71 69 71 72 72 76 80 81 79 78 76 70 74 68 64 65 65 70 77 82 88 92 95 94 90 86 84 79 66 57 54 50
38 41 45 46 48 46 50 59 80 91 96 98 97 98 99 99 98 98 91 86 83 81 78 77 77 81 85 86 89 91 90 88 87 85 87 78 75 75 77 81 85 89 92 94 92 90 88 90 78 65 60 54 51 46
36 35 38 42 41 45 51 53 55 72 86 94 97 99 99 98 99 95 89 86 85 83 81 83 87 90 92 93 96 96 98 95 92 92 89 85 84 87 87 84 83 86 86 84 85 88 85 72 64 61 56 49 46 44
30 32 33 34 36 41 45 50 55 61 66 86 93 98 98 98 97 95 90 89 88 88 88 89 91 95 96 98 99 98 98 97 97 94 91 95 95 95 90 88 87 88 88 91 89 82 73 66 62 54 50 46 42 40
25 31 33 34 34 37 39 44 45 49 59 66 80 93 92 95 97 97 96 97 98 97 96 94 95 96 95 99 98 98 98 98 98 98 98 96 96 94 91 90 89 90 90 87 79 72 68 60 54 47 42 39 36 33
28 34 39 37 37 37 38 38 39 44 47 54 65 74 84 93 97 96 95 96 98 98 98 98 98 98 98 98 98 98 98 98 98 97 96 95 94 93 94 95 93 88 79 73 70 64 55 46 40 37 33 31 31 35
23 32 34 38 40 40 39 38 42 44 45 52 56 61 68 77 84 88 92 93 94 96 97 97 97 97 97 98 98 98 98 97 95 92 91 90 87 83 81 78 74 70 67 61 52 45 40 38 34 31 28 31 35 39
32 31 33 40 41 41 42 42 46 53 55 57 62 64 65 67 70 76 86 91 94 94 92 93 93 97 97 97 98 97 93 90 88 86 83 80 76 74 71 66 59 51 44 41 38 36 33 31 31 32 35 36 38 43
34 38 35 38 43 45 44 46 48 53 59 63 67 67 67 70 71 71 69 71 75 83 88 90 93 93 92 88 90 87 84 81 78 74 73 71 67 61 54 48 44 41 38 36 35 33 33 35 37 39 41 45 49 52
31 37 39 44 45 49 52 50 49 51 54 58 63 69 71 71 73 73 72 71 69 68 68 69 70 74 76 74 69 65 64 61 58 56 53 50 46 43 41 40 40 40 40 40 38 38 40 41 43 46 50 56 62 64
32 40 39 48 56 53 58 58 56 56 58 58 62 67 70 70 72 73 71 69 65 64 62 60 61 60 59 55 52 49 47 46 45 45 43 41 41 41 40 41 42 43 46 49 51 51 55 56 56 60 68 68 67 64
36 47 50 55 58 61 62 64 63 63 65 66 68 76 82 82 82 77 74 70 68 62 58 55 52 50 48 48 47 44 42 40 39 40 41 42 43 44 47 51 54 54 56 58 61 63 62 67 71 74 74 70 67 64
39 43 55 65 70 70 74 71 69 70 72 73 77 81 82 80 76 73 69 63 57 53 50 47 46 47 48 48 49 40 40 43 47 52 52 52 53 55 55 57 60 61 58 53 54 52 50 52 55 57 62 64 64 69
46 49 68 77 77 81 73 76 78 80 83 83 84 80 79 75 72 69 62 54 53 48 46 43 44 42 43 41 43 46 48 51 54 58 60 57 56 55 57 59 61 58 48 43 43 44 46 48 59 63 65 69 73 77
62 73 83 89 87 84 82 86 88 91 91 91 84 82 79 75 71 63 60 62 59 56 54 51 47 47 53 54 54 56 59 62 65 68 70 67 61 57 51 45 45 47 48 48 49 50 51 51 56 61 68 75 80 82
78 90 90 92 94 95 94 95 96 95 92 90 85 81 77 74 70 66 64 61 57 55 49 52 54 54 58 62 66 68 71 72 72 70 70 60 50 48 48 46 46 47 52 53 54 56 59 59 59 65 71 78 81 83
94 97 98 96 98 98 98 98 96 95 93 88 83 79 74 68 60 61 60 58 58 58 55 55 60 63 68 70 72 74 77 77 70 58 52 54 53 53 53 53 52 52 54 55 57 61 64 67 68 71 75 79 83 85
97 96 98 98 98 95 94 92 89 85 80 74 68 67 61 57 62 61 62 63 62 61 61 65 71 75 80 82 81 80 73 60 54 54 57 55 56 57 56 56 58 58 59 61 62 64 67 69 72 76 79 82 83 86
98 98 95 93 86 80 77 76 72 68 65 60 59 58 59 58 59 61 64 66 70 70 74 78 82 85 85 78 63 52 48 49 49 50 52 53 50 50 49 48 47 47 49 52 58 65 67 72 75 77 81 86 87 90
90 88 82 77 77 76 73 70 68 63 59 60 62 63 65 67 68 69 74 79 83 81 75 69 65 59 51 49 51 52 53 53 52 49 46 42 37 33 32 32 33 36 39 43 48 55 65 71 77 80 82 87 90 91
77 76 74 72 74 70 69 65 64 62 62 66 68 68 70 72 72 69 64 59 54 50 48 48 51 53 54 56 56 55 52 49 44 37 34 33 33 33 34 35 37 39 41 44 48 53 59 69 79 81 86 90 91 95
61 60 59 60 63 58 52 48 47 45 48 48 49 48 51 52 52 48 46 47 50 53 54 54 54 54 53 52 51 45 39 34 34 34 35 36 37 38 38 40 41 44 47 50 54 57 61 69 77 82 90 91 94 98
46 42 40 41 43 43 44 37 41 44 47 47 49 52 52 54 54 53 53 53 56 55 53 54 53 50 45 40 35 33 34 35 36 38 40 42 44 44 45 46 48 51 54 57 59 62 65 69 76 83 90 93 99 100

GFSWCAN_prec_cthk_021.txt.gz
RH
73 70 73 72 71 73 73 70 64 63 66 58 48 38 38 44 63 67 60 46 40 37 40 40 38 38 39 39 43 42 45 46 49 52 53 54 55 51 50 46 50 50 53 53 54 55 40 26 34 35 31 29 34 37
69 68 69 70 73 73 74 69 67 66 65 62 52 48 42 43 43 41 40 40 38 38 41 41 41 40 40 42 42 44 43 44 46 49 51 53 54 55 51 51 45 48 40 44 42 38 28 29 29 31 34 36 40 43
68 67 71 78 77 72 75 72 70 69 66 59 56 54 52 52 50 47 43 41 36 38 41 44 44 42 42 42 42 42 44 41 43 41 45 47 45 48 50 49 43 41 40 42 39 31 33 35 37 38 41 44 46 51
82 76 77 80 78 76 75 73 72 69 65 61 55 49 49 46 43 40 39 38 36 34 36 43 43 47 47 47 47 46 45 46 47 45 47 47 44 43 45 41 45 40 43 42 44 40 41 41 42 44 46 48 54 60
89 81 80 79 81 82 78 73 72 70 66 60 55 51 48 45 43 41 40 39 39 37 39 42 41 45 48 50 50 50 49 50 50 51 52 50 47 48 49 51 49 42 45 48 45 41 43 42 44 48 52 55 57 61
94 89 81 79 84 85 82 77 72 71 70 68 64 58 53 50 47 45 42 40 40 38 38 44 45 45 43 43 45 45 47 46 48 47 50 49 46 49 55 55 42 38 40 43 44 46 48 51 54 55 56 60 65 72
95 88 79 75 79 84 82 80 76 73 69 67 67 65 64 60 57 52 48 50 50 48 45 50 48 47 47 48 48 49 50 51 53 53 53 52 52 54 57 57 42 50 51 53 54 56 56 55 55 59 67 75 78 80
96 90 82 76 71 72 73 74 73 71 69 68 67 66 65 65 63 61 57 55 56 56 55 59 57 53 54 55 56 56 56 56 58 60 61 62 66 69 68 54 55 56 58 58 58 59 60 63 66 74 81 82 84 90
98 97 90 83 78 73 65 64 67 69 68 68 67 66 65 65 64 64 64 63 60 57 56 56 52 52 54 57 60 61 62 64 64 68 70 72 72 69 62 59 58 57 58 59 61 63 68 73 78 85 86 87 96 94
98 98 96 93 88 82 79 73 69 67 68 69 69 68 67 67 67 65 66 61 60 60 58 56 51 52 50 54 57 60 64 67 68 66 69 67 63 62 63 65 66 68 68 70 75 79 81 83 88 92 97 97 95 91
91 95 97 98 96 94 92 86 81 80 76 74 75 74 72 71 69 68 69 66 65 63 59 58 56 54 56 61 70 75 79 77 76 73 82 77 76 73 73 71 70 71 74 79 82 85 90 93 97 98 93 93 95 81
72 74 82 91 94 94 96 94 93 90 86 81 73 73 73 71 70 72 73 73 71 71 67 65 66 71 76 82 88 89 90 89 86 83 86 80 78 77 78 78 79 82 84 86 89 91 93 97 97 97 92 81 74 70
65 65 62 67 77 89 96 97 97 96 93 90 88 84 79 78 80 79 77 77 74 77 84 89 92 95 95 95 96 98 98 95 91 91 89 86 85 87 87 86 86 88 89 92 93 95 95 90 89 90 85 77 69 66
61 61 64 64 62 63 69 81 93 98 98 97 98 98 97 94 90 91 90 91 91 92 93 93 94 95 96 98 98 98 98 97 95 91 87 89 89 89 88 88 85 89 95 95 91 88 88 85 79 74 69 68 66 64
45 47 53 57 61 59 59 64 70 74 88 95 96 98 95 93 93 92 96 97 97 96 95 96 96 96 96 97 96 98 98 97 94 92 92 93 95 96 92 91 93 93 93 91 92 90 87 78 71 70 67 60 52 46
39 38 38 43 45 49 55 56 58 60 62 68 78 89 92 92 93 93 93 94 95 96 97 97 96 96 96 96 94 95 96 94 95 97 98 98 97 97 97 97 97 92 90 90 87 82 75 68 61 55 50 48 46 44
28 31 33 34 36 37 37 40 50 50 54 61 64 66 72 76 77 77 79 81 82 84 87 89 89 91 95 96 96 97 97 97 97 96 95 95 94 94 92 88 84 81 76 71 66 61 57 52 48 47 45 42 40 40
19 26 28 27 27 26 27 30 33 37 47 53 54 54 58 60 63 62 62 65 69 70 73 77 80 84 88 90 92 94 96 93 92 93 96 94 88 83 78 75 68 62 56 51 49 48 47 45 43 42 42 44 44 48
20 19 18 23 25 26 28 32 34 38 40 44 47 49 51 54 55 57 58 58 57 56 56 60 66 69 74 76 78 80 80 79 81 79 70 62 59 58 54 50 47 43 40 40 40 41 42 46 48 49 50 49 48 47
18 20 21 19 24 30 31 34 36 38 45 49 49 53 51 53 54 54 55 54 54 53 53 54 56 55 53 51 52 52 54 52 51 47 46 48 49 47 44 41 39 39 38 39 43 45 45 47 50 52 53 52 48 41
14 15 17 18 22 29 35 37 38 39 42 42 45 47 50 53 53 54 54 56 56 54 54 54 56 56 56 56 57 56 56 53 50 51 51 49 46 44 40 39 40 41 42 43 45 49 52 54 50 45 43 42 45 46
19 19 22 23 26 33 36 41 42 46 45 46 46 48 50 52 53 55 55 55 53 55 58 62 63 65 64 63 64 59 53 48 45 42 42 41 41 41 41 41 43 47 50 51 53 53 51 50 49 49 48 45 45 45
21 20 22 26 30 36 45 44 48 49 51 53 54 54 54 55 57 58 60 59 63 70 71 70 68 70 71 69 63 58 52 48 45 45 44 45 46 48 49 51 55 57 57 59 60 56 54 53 50 45 43 43 44 44
28 29 31 33 37 43 46 51 53 55 56 61 62 61 61 63 67 70 67 67 76 77 76 73 70 68 67 63 60 57 53 52 52 51 50 53 56 59 62 62 61 63 64 60 55 52 48 44 42 42 42 42 43 44
39 43 41 43 45 47 51 53 59 67 68 70 75 75 76 78 80 76 73 75 78 78 77 75 72 68 65 62 62 62 60 58 56 58 60 61 63 65 65 66 66 62 53 47 43 40 39 37 35 33 32 34 35 37
47 50 50 56 58 59 65 73 76 77 76 83 83 83 87 89 89 83 81 86 87 85 83 79 76 73 70 66 64 63 62 61 61 61 63 66 68 68 65 57 48 45 44 41 37 34 31 28 27 29 31 34 36 39
79 83 84 79 77 82 85 85 89 96 96 90 93 93 96 98 96 90 93 90 88 86 82 80 76 71 66 62 62 64 65 67 69 71 71 68 60 50 44 42 40 38 34 31 28 26 26 28 31 34 37 39 43 46
90 94 95 96 98 94 94 96 98 98 98 98 98 98 98 96 94 94 92 90 86 82 78 78 74 69 68 69 72 75 76 72 65 59 51 46 45 43 41 39 36 31 28 28 29 31 33 35 37 40 44 46 49 52
98 98 98 95 94 97 98 98 98 98 98 98 96 94 92 89 86 84 83 83 82 82 78 76 76 78 79 78 74 66 59 50 43 42 43 43 43 42 38 32 29 29 30 32 35 37 38 40 42 45 48 50 52 56
91 91 92 92 90 88 86 87 89 88 87 86 84 81 80 80 80 80 79 78 79 79 77 73 68 64 59 52 46 44 43 45 48 48 47 43 36 31 30 30 31 33 35 37 38 38 40 43 45 48 50 53 58 62
84 85 84 82 85 84 82 82 81 81 80 77 74 71 68 66 63 62 60 58 56 55 54 49 47 45 45 45 47 49 51 50 46 40 35 32 32 32 32 33 34 37 38 37 38 39 43 46 47 49 52 56 61 65
58 62 62 64 64 62 57 56 52 50 50 48 46 45 45 46 47 46 48 49 50 50 51 50 50 51 52 52 52 52 49 43 37 33 32 32 34 35 36 36 36 36 37 38 41 46 48 47 51 54 58 61 66 71
45 45 45 47 47 47 46 38 39 44 45 46 47 50 52 55 57 57 57 58 58 57 55 53 52 52 52 51 49 45 40 34 30 30 34 36 37 37 36 37 39 39 40 43 47 49 46 50 56 59 62 66 71 75

GFSWCAN_prec_cthk_024.txt.gz
RH
94 90 83 73 69 66 62 66 72 74 66 60 51 42 32 31 42 50 59 50 45 42 44 42 41 41 37 37 40 40 43 45 45 46 49 50 51 48 45 41 49 49 55 56 57 56 44 30 35 37 32 28 28 32
91 84 76 71 68 66 69 73 72 72 67 64 53 39 34 38 53 72 62 54 45 42 47 46 45 43 36 38 37 42 41 41 41 46 48 49 51 50 46 46 43 46 42 45 43 40 31 32 32 32 32 34 36 38
86 79 75 72 68 67 69 71 72 74 69 66 54 42 44 44 66 79 67 56 48 46 47 47 45 43 42 42 42 41 41 39 41 41 44 44 42 44 47 47 43 41 40 41 39 33 34 34 34 36 39 41 44 47
81 76 74 76 73 73 74 74 73 75 71 69 57 46 48 53 62 68 66 59 49 46 48 50 47 46 44 43 43 42 40 41 42 41 43 46 43 42 44 41 43 40 41 41 43 39 40 39 40 42 42 44 47 50
82 84 78 74 76 76 81 76 72 72 72 71 68 55 50 49 50 57 59 49 41 37 39 44 46 46 47 47 48 48 48 46 47 50 53 51 47 47 49 49 47 39 42 47 46 40 41 40 42 44 47 50 55 59
79 81 82 77 77 80 83 77 74 72 69 67 65 65 65 62 53 46 44 43 39 36 35 42 43 46 47 49 51 51 50 49 48 48 51 50 46 48 56 56 40 41 43 45 46 48 51 53 57 59 59 61 62 66
80 81 84 86 83 82 84 80 77 73 70 67 65 60 56 52 47 43 41 44 41 39 37 45 45 44 44 44 45 47 48 49 51 52 54 54 54 54 58 59 42 51 56 58 60 61 61 63 63 62 63 66 70 77
86 89 91 92 89 85 85 80 78 75 72 70 68 65 61 58 55 53 51 51 47 46 45 50 52 50 52 54 53 52 52 53 56 59 60 59 61 63 64 56 59 60 61 62 64 64 63 63 65 69 74 81 85 88
95 92 90 90 92 90 88 84 79 77 75 74 73 72 70 67 67 68 65 61 59 56 59 62 61 63 63 62 60 59 59 61 60 62 62 63 65 67 64 62 61 61 63 64 66 71 75 76 78 80 86 88 92 96
98 96 92 89 88 88 93 90 85 82 78 76 74 73 73 73 72 72 73 70 68 68 67 66 67 65 62 60 58 57 59 62 61 61 64 64 64 66 64 68 73 75 74 75 78 80 83 84 88 91 93 94 96 97
97 96 93 90 87 86 87 89 87 84 82 80 78 78 78 78 76 74 74 72 72 71 70 70 68 65 60 58 60 62 65 65 65 64 72 73 75 76 78 80 81 81 81 81 83 84 87 91 91 91 95 93 90 87
98 98 96 91 89 88 85 78 73 70 69 70 71 74 75 74 73 74 77 75 73 72 69 69 67 64 64 65 69 72 74 76 78 78 85 84 83 86 87 87 87 86 85 83 85 86 88 91 93 92 92 92 88 83
94 98 99 98 98 98 95 91 86 83 79 78 78 77 77 80 81 81 83 76 70 68 68 68 72 77 81 88 93 95 95 92 90 91 92 89 89 89 89 88 86 86 87 87 87 87 88 90 88 86 83 77 73 71
78 76 84 95 99 99 97 95 96 95 94 93 91 91 87 86 82 79 76 74 73 78 83 87 88 91 96 98 98 98 97 97 95 92 90 90 91 91 90 89 93 93 91 87 87 86 84 82 77 72 70 69 65 61
70 73 70 66 70 82 93 98 98 98 97 98 98 97 93 90 91 91 91 91 90 91 95 96 97 97 98 98 97 97 97 95 92 91 93 94 96 95 95 94 94 92 89 88 87 84 83 75 69 66 62 59 55 51
53 55 59 62 64 60 64 72 79 87 94 97 97 96 97 97 96 96 97 97 97 96 96 96 95 96 96 98 96 96 96 93 94 95 95 96 96 96 94 92 91 89 86 82 76 69 64 60 55 52 49 47 45 44
40 45 42 47 52 56 63 64 62 61 68 71 76 84 89 91 93 93 93 92 90 89 88 87 87 87 88 89 86 83 84 86 89 92 95 97 96 95 92 87 81 75 70 64 59 54 49 46 44 42 40 40 42 43
22 29 34 35 34 38 42 49 50 57 64 68 70 72 76 75 77 75 74 73 73 73 75 75 76 79 81 82 82 80 78 77 79 81 82 87 89 84 74 67 62 56 51 46 45 42 40 38 39 42 42 42 42 44
15 16 18 21 24 26 30 34 37 42 47 52 54 58 60 64 65 65 67 66 64 61 60 62 64 65 67 66 65 64 64 60 61 62 60 56 51 50 50 50 48 46 44 42 40 40 42 42 43 43 44 43 40 38
12 13 12 14 19 22 27 32 35 37 44 46 49 51 51 53 55 56 56 55 53 51 50 53 55 55 52 50 49 50 53 52 53 53 50 48 49 51 53 51 48 44 42 41 40 40 42 43 46 47 46 45 45 45
13 13 13 15 18 23 30 34 35 37 40 45 50 50 51 51 52 54 55 53 53 52 53 55 56 54 56 56 56 56 55 55 54 54 55 58 58 56 53 47 44 42 41 43 45 48 50 50 50 48 45 45 45 43
13 13 14 15 21 26 32 36 38 41 40 43 43 45 46 49 51 52 53 53 54 57 58 57 60 61 63 64 63 61 61 58 57 59 58 55 52 49 49 49 49 49 51 54 54 54 55 52 47 44 40 36 35 34
16 14 17 21 24 30 39 37 40 41 44 48 48 48 49 50 51 52 56 55 56 59 61 66 71 71 71 72 70 69 67 67 64 60 57 54 52 54 57 59 58 58 59 58 58 56 50 41 34 32 32 31 30 29
18 20 24 29 30 37 38 41 43 47 50 53 54 54 52 53 56 57 57 57 62 66 67 71 72 74 75 74 73 74 74 72 66 63 61 61 65 68 67 63 61 61 61 58 50 38 32 31 31 30 28 26 26 27
22 32 30 32 36 38 42 43 48 51 53 59 63 64 64 65 68 68 66 66 73 76 76 79 80 79 81 83 82 79 76 72 71 71 72 73 72 68 66 66 66 61 50 36 32 31 32 31 28 26 26 29 31 34
38 41 41 47 50 50 54 57 61 66 70 72 71 72 73 77 78 79 74 79 83 85 86 89 89 88 88 87 85 81 78 77 76 76 74 73 73 73 70 63 49 38 35 33 33 31 28 27 27 29 31 33 35 38
57 62 68 72 77 76 77 76 76 81 85 88 88 87 88 90 90 88 91 96 98 98 97 96 94 92 88 83 81 81 82 81 80 80 78 76 70 56 44 38 36 36 36 34 31 30 29 30 32 33 34 37 40 42
78 83 85 85 87 88 91 92 95 96 97 97 98 98 98 98 98 98 98 98 98 97 96 93 90 86 83 83 83 85 85 83 78 70 59 47 41 40 40 40 38 35 33 32 32 32 33 34 35 36 39 42 43 46
84 85 87 90 90 91 95 96 97 98 98 98 98 98 98 96 94 93 92 91 90 88 87 87 86 85 85 85 82 73 62 52 45 41 41 42 43 43 40 35 32 32 32 33 34 33 34 36 38 40 44 44 46 49
86 86 85 85 86 88 88 88 87 89 91 93 92 90 90 89 87 86 83 81 79 77 76 73 71 68 62 53 46 42 42 44 47 48 48 46 41 35 32 32 32 33 33 33 32 34 37 40 43 47 47 48 52 53
72 71 72 73 74 75 76 78 81 83 83 81 78 73 68 66 63 60 59 58 57 56 55 52 50 47 45 45 47 49 50 51 50 46 42 37 32 31 32 33 33 32 32 33 37 39 41 44 46 44 45 50 53 55
47 49 50 52 54 51 50 50 50 53 52 51 50 49 48 49 51 50 51 52 54 54 52 50 50 51 51 50 50 50 49 46 42 37 31 29 30 31 32 33 34 38 41 43 45 47 46 44 43 44 48 53 55 58
47 45 44 44 44 43 42 40 39 44 47 47 48 51 54 57 59 58 59 60 60 57 54 52 53 55 54 52 50 47 44 40 35 30 29 31 33 36 38 41 45 48 50 51 49 46 44 42 43 47 51 56 59 61

GFSWCAN_prec_cthk_027.txt.gz
RH
98 97 98 95 88 80 76 73 71 70 68 62 59 57 53 44 44 43 44 51 48 42 39 34 30 28 33 36 38 39 42 42 42 42 45 43 45 42 41 39 45 44 52 54 53 51 45 30 34 36 32 30 30 32
96 95 92 88 83 79 75 76 77 79 70 61 58 56 45 40 42 42 56 63 59 48 41 36 37 34 34 32 33 41 41 39 40 44 42 43 49 48 44 43 42 42 40 43 40 37 31 32 33 33 34 35 36 39
95 92 87 82 78 75 75 77 78 76 68 61 60 59 42 38 42 50 57 72 57 55 54 51 52 51 47 45 41 38 41 41 38 37 41 45 46 43 46 45 42 40 40 40 39 34 35 36 37 38 39 42 44 47
87 82 77 74 74 73 75 79 79 77 69 62 57 52 39 39 45 61 70 73 63 50 57 60 57 55 52 47 43 43 40 41 41 40 42 45 42 43 46 44 45 40 41 42 42 39 40 39 40 42 44 46 47 50
79 75 72 72 72 75 74 78 78 74 73 71 60 43 40 55 76 84 86 72 63 53 53 56 54 54 53 50 48 46 44 42 42 44 48 48 48 51 55 52 47 41 43 48 48 42 44 45 48 51 53 57 61 62
79 76 73 70 70 72 73 77 80 74 76 75 65 52 57 70 78 81 78 69 60 52 47 61 57 56 54 51 49 48 48 48 49 51 55 53 50 51 59 56 45 47 48 48 49 54 57 60 62 63 64 65 65 66
78 78 76 77 74 79 76 74 88 77 76 73 68 62 62 67 71 70 64 64 56 51 47 53 53 52 52 52 52 53 53 52 53 55 55 55 55 56 60 61 56 55 56 60 64 65 66 66 66 66 66 67 71 77
88 82 79 82 85 87 82 77 78 74 76 73 75 72 69 65 60 60 57 54 51 46 43 47 48 45 47 48 49 49 50 50 53 56 57 58 62 64 68 64 63 61 61 64 65 67 69 71 72 74 79 81 84 88
87 84 77 77 84 89 87 83 80 77 76 74 72 69 65 61 58 59 57 54 48 43 45 46 47 56 57 58 59 59 59 61 61 64 65 65 68 69 65 63 63 63 65 67 72 77 82 84 84 87 87 90 94 95
90 95 88 84 85 87 91 87 85 82 79 77 74 70 70 71 68 64 60 59 57 58 57 61 65 67 68 71 70 67 63 64 61 62 64 64 67 65 65 67 71 79 82 83 85 87 89 90 91 90 90 91 91 93
91 93 94 95 96 95 90 90 85 83 81 79 77 79 81 78 75 74 77 78 77 77 76 76 76 75 74 72 71 68 67 63 63 62 64 67 68 69 75 81 86 89 89 89 89 89 88 89 89 89 90 89 89 89
96 95 95 94 93 91 90 95 91 87 85 82 81 82 80 78 78 82 85 83 82 82 80 79 77 73 70 67 65 65 65 66 66 69 76 78 79 85 90 91 93 92 89 87 86 86 86 85 84 82 83 82 79 77
99 98 95 94 94 91 93 89 90 91 90 87 87 86 86 87 88 85 82 77 74 72 71 70 70 69 68 66 70 74 82 85 85 89 92 90 91 94 93 92 91 91 88 84 83 83 83 81 80 75 71 69 66 62
98 98 98 97 96 95 93 92 88 84 81 79 77 75 72 78 77 74 75 77 78 78 80 82 83 84 85 88 93 93 93 93 94 91 89 91 94 95 94 92 90 86 84 83 83 82 78 72 66 63 59 56 53 50
83 87 93 97 98 99 98 97 97 94 92 92 86 92 90 86 87 87 87 86 83 83 85 87 87 89 92 94 96 97 98 96 93 91 93 96 97 96 92 91 89 87 87 86 80 74 68 62 57 54 51 46 44 43
72 76 73 72 80 91 96 97 98 97 98 98 96 96 94 94 94 94 94 94 96 98 99 98 97 97 96 97 96 95 94 92 91 93 94 92 90 89 89 90 89 84 76 70 65 62 58 52 45 43 43 40 38 37
53 53 57 65 69 69 74 78 81 89 95 96 97 98 98 97 98 98 98 98 98 98 97 95 93 92 93 92 90 87 85 86 89 87 85 83 82 80 81 78 72 67 65 62 54 46 45 42 40 39 37 35 36 36
39 43 46 47 51 58 60 61 64 67 72 77 79 84 87 85 87 88 89 90 89 89 89 87 83 84 83 81 81 80 79 79 78 76 75 73 74 70 62 58 55 50 44 41 42 43 43 42 40 37 36 36 36 35
27 27 31 34 35 35 41 49 52 59 67 71 74 76 77 79 79 78 76 75 72 71 72 72 73 71 71 70 68 66 63 60 59 57 58 57 55 53 51 51 52 49 48 48 48 45 43 43 42 42 42 41 40 38
15 18 18 20 22 27 35 41 42 43 51 53 55 59 62 63 65 66 65 64 60 58 56 55 55 57 55 56 56 55 55 52 54 56 55 54 53 54 57 57 57 56 51 47 48 50 52 53 51 48 47 44 36 29
15 10 10 12 15 20 28 33 34 39 42 45 49 49 49 50 52 54 55 55 54 54 55 56 57 57 56 53 52 55 57 56 58 59 57 59 62 62 65 65 60 54 52 52 56 59 59 57 53 48 40 29 25 25
10 10 10 13 18 24 30 34 37 39 40 42 42 45 46 49 51 54 55 54 54 57 58 59 60 60 60 61 62 62 64 64 64 63 64 65 67 67 64 62 61 63 65 65 65 64 60 54 46 33 27 26 25 24
11 11 14 18 22 29 38 34 36 38 41 45 45 46 46 47 48 49 51 52 55 60 62 64 65 66 67 69 72 71 73 73 70 68 66 67 67 65 65 69 71 71 70 69 67 61 52 39 32 30 28 26 25 26
13 15 20 25 28 34 34 36 39 42 45 48 50 52 52 50 51 53 55 56 58 60 63 67 71 75 78 79 78 79 78 76 76 78 77 76 77 79 79 77 74 74 72 68 59 45 36 34 32 29 27 27 29 30
18 27 27 33 34 37 40 44 46 50 55 58 56 56 60 61 62 62 63 65 69 72 77 78 80 83 86 87 85 84 84 86 88 88 87 86 84 80 80 81 77 72 62 48 41 38 35 32 29 29 30 30 30 32
37 44 46 52 56 56 57 58 59 61 62 65 72 74 73 71 74 73 70 74 77 79 83 87 88 90 91 92 93 95 95 92 90 87 86 86 87 85 78 68 57 47 42 39 35 32 29 29 30 31 31 32 33 36
54 60 64 65 66 67 68 69 71 71 74 78 85 85 86 84 83 88 89 88 87 90 92 97 98 98 98 98 97 95 93 92 91 91 89 83 72 60 50 45 42 39 36 33 30 30 30 31 31 31 31 35 38 40
68 69 70 72 73 74 76 78 80 82 85 89 91 92 93 94 94 95 97 98 98 97 98 98 96 96 95 95 93 92 89 84 77 67 56 49 45 43 41 41 39 35 32 31 30 31 33 32 31 32 36 40 43 42
73 74 74 76 76 78 80 82 86 89 90 93 95 96 97 96 97 96 96 96 96 95 94 93 91 89 85 81 76 69 58 48 43 42 41 42 44 45 43 38 33 30 30 31 33 32 32 33 36 40 43 45 44 43
71 72 72 72 73 74 75 79 81 82 85 90 91 90 90 90 89 86 84 81 77 73 71 68 67 64 56 48 43 41 42 44 46 47 47 47 44 38 33 29 30 31 31 30 31 35 38 42 46 48 47 45 45 48
55 53 52 51 53 54 54 54 58 61 64 67 69 70 69 66 61 58 58 58 58 56 55 53 50 48 47 47 47 47 48 50 50 48 44 40 36 32 30 31 32 34 35 37 41 43 47 49 49 47 44 44 46 50
45 46 46 48 49 48 46 43 40 42 46 47 48 49 50 52 53 53 56 57 59 57 56 55 53 53 50 51 52 53 53 50 46 40 36 34 33 34 36 38 40 42 44 46 49 51 50 50 48 45 44 45 49 53
56 54 52 48 44 43 42 38 39 43 46 47 49 53 56 59 62 62 62 64 64 63 62 59 58 58 58 57 54 50 47 41 36 34 35 38 40 41 43 45 46 48 50 51 52 52 51 48 45 44 45 46 48 51

GFSWCAN_prec_cthk_030.txt.gz
RH
92 97 98 96 97 98 98 97 94 86 81 77 72 66 63 63 63 65 57 54 53 52 47 40 34 32 35 37 38 37 39 40 40 46 48 41 45 36 35 34 39 41 48 54 48 56 52 28 31 35 32 30 30 32
98 99 97 97 95 97 93 89 85 80 74 70 66 64 62 59 60 63 55 52 48 47 49 43 36 30 30 37 37 36 37 35 39 43 44 44 49 46 41 40 37 39 37 39 37 36 31 32 33 34 35 36 37 40
98 98 98 98 92 89 86 83 78 73 70 65 64 62 59 60 65 59 50 49 49 52 53 50 43 35 32 35 39 39 39 41 41 39 41 44 51 42 50 41 38 35 36 37 36 33 35 36 37 38 40 41 42 43
95 91 88 86 85 84 82 80 77 73 68 65 61 59 63 65 61 50 48 61 64 60 60 51 44 45 41 38 39 39 43 43 42 43 45 45 46 41 43 40 39 38 40 40 39 37 38 39 42 44 46 50 53 56
92 88 87 87 88 89 90 89 80 71 66 62 64 62 58 56 52 50 56 75 76 68 66 57 56 58 56 52 50 47 44 45 47 48 50 48 44 46 48 48 50 45 44 45 45 44 45 47 52 55 59 62 65 66
84 79 79 85 87 89 89 85 79 78 69 64 65 57 51 47 51 63 72 85 72 67 63 73 68 67 61 56 53 51 50 49 50 50 53 51 50 52 59 52 51 50 52 54 54 54 59 62 66 67 68 68 67 67
79 79 81 86 86 85 84 84 84 75 65 60 61 58 48 57 64 61 82 77 68 64 56 69 66 64 62 59 58 56 53 52 54 58 60 58 55 54 58 58 57 57 59 61 63 64 67 67 68 68 70 74 80 83
83 80 79 83 86 89 84 82 82 82 76 65 60 58 68 78 78 84 82 74 67 60 53 59 61 65 62 62 62 60 60 61 60 60 58 56 58 60 65 61 64 65 65 65 63 64 67 69 75 79 83 87 88 90
82 85 87 86 84 86 83 79 79 77 81 81 82 81 85 87 84 80 74 70 66 60 58 56 57 57 55 55 53 53 53 55 55 58 61 62 66 68 66 66 66 65 65 67 71 75 82 86 89 90 92 91 89 89
89 90 91 88 87 86 89 84 81 74 71 67 67 65 70 74 75 74 68 62 58 57 55 56 53 52 53 58 61 61 63 66 64 67 69 70 66 64 64 63 63 65 70 78 83 86 90 91 91 90 88 87 87 86
86 84 87 89 90 90 87 84 87 82 77 73 70 77 75 68 66 65 66 64 63 60 57 57 59 59 62 65 72 73 74 73 73 69 70 70 67 63 64 68 75 80 83 85 87 89 86 83 83 80 80 81 81 77
94 95 90 89 90 89 89 88 82 78 78 77 79 80 76 75 73 75 77 77 72 75 73 74 74 75 76 79 78 79 78 74 72 65 68 69 68 78 86 90 89 89 88 86 86 84 82 81 80 76 70 64 61 59
92 92 92 91 90 89 88 90 90 87 83 82 81 81 81 86 89 90 86 82 81 79 80 79 79 78 77 75 75 73 74 75 68 73 77 78 85 90 93 93 93 90 87 83 78 73 69 66 63 59 54 50 46 45
93 93 92 90 89 88 87 87 88 93 90 90 93 96 95 93 86 82 80 81 81 76 72 70 71 73 76 78 78 78 80 83 87 85 85 90 93 96 97 96 91 86 79 78 77 74 67 58 54 50 46 46 45 41
95 93 92 91 92 93 92 90 90 87 87 91 89 92 91 86 83 78 72 71 73 79 83 83 81 81 83 89 92 95 95 94 88 89 93 96 97 97 97 94 89 82 81 76 67 60 56 52 46 41 40 39 39 39
82 87 91 96 95 95 96 94 94 92 94 95 93 93 91 89 90 89 87 88 89 90 90 89 92 95 96 97 97 98 97 94 93 94 94 96 95 95 93 87 82 76 67 60 57 56 52 44 37 34 37 40 39 37
72 77 80 79 80 88 91 95 97 98 98 97 95 97 98 98 98 98 98 97 97 97 98 97 98 98 94 95 95 93 93 91 93 92 91 91 88 83 78 73 68 62 60 55 45 39 39 38 38 41 41 40 40 41
53 59 62 66 71 75 72 74 80 85 93 94 96 97 95 96 96 97 97 97 97 97 97 95 90 93 92 90 87 86 84 83 83 82 80 76 73 67 60 53 50 49 47 45 43 43 41 39 42 43 44 43 45 46
37 38 44 51 55 54 57 64 67 78 86 84 85 86 88 89 90 91 90 89 90 90 91 89 88 83 81 78 77 77 77 71 66 63 60 59 58 57 55 53 53 53 54 53 49 45 45 48 48 48 47 48 49 46
27 31 31 31 31 35 45 51 54 62 68 72 73 75 75 74 75 74 73 72 70 68 68 69 71 71 69 67 62 58 58 57 54 54 56 58 59 60 59 59 61 62 60 54 52 53 56 58 58 57 55 53 45 33
19 17 20 22 24 29 36 44 46 53 54 58 59 60 61 62 63 64 65 63 61 58 57 56 56 56 54 55 57 59 59 59 60 61 61 62 64 65 66 68 68 65 61 60 61 63 64 64 60 58 53 42 33 30
11 14 15 14 19 25 33 36 39 40 42 46 46 47 49 50 52 53 55 56 56 57 57 58 59 59 60 58 59 60 62 64 66 68 69 69 71 73 74 72 70 69 70 71 71 70 67 63 60 52 40 34 32 31
9 9 12 17 21 27 36 38 37 38 42 45 44 44 44 45 48 47 51 52 55 57 59 62 64 66 67 68 68 68 69 73 75 75 77 78 77 75 74 77 79 80 79 78 74 71 67 59 45 38 35 34 30 27
11 14 17 21 25 30 31 36 39 42 45 45 45 47 48 49 51 52 54 55 57 58 60 63 66 69 71 72 73 76 79 80 82 83 83 83 83 87 89 88 86 83 81 78 73 63 48 41 38 35 31 27 27 28
15 26 27 31 34 36 40 43 47 45 49 51 52 54 56 57 57 57 59 60 63 68 69 70 71 74 78 79 82 87 88 91 93 94 96 98 95 91 89 89 88 82 73 60 47 42 39 37 32 28 28 29 29 30
36 43 43 48 49 49 49 50 51 52 54 58 64 65 67 67 68 68 71 76 76 76 77 80 84 85 88 89 91 93 97 98 98 98 97 96 96 94 87 77 65 52 46 43 41 38 32 28 28 29 30 30 32 35
49 55 58 58 59 59 62 61 63 63 67 70 71 73 74 75 78 80 84 86 88 90 91 92 92 97 98 98 98 98 97 97 96 96 93 88 77 65 52 47 45 44 42 37 31 28 28 29 28 29 31 34 38 41
59 63 64 67 69 68 69 70 72 74 75 79 82 85 85 88 89 91 92 94 95 96 97 97 97 97 97 98 98 96 93 88 82 69 56 47 43 43 44 44 43 38 33 30 29 28 28 28 30 34 37 40 44 46
67 68 68 69 70 71 73 74 76 78 78 80 84 87 89 91 90 91 91 92 92 92 92 91 90 88 86 83 77 68 56 47 44 43 44 45 46 46 43 41 38 34 30 28 28 29 32 35 38 40 43 46 47 46
58 57 57 56 57 58 59 58 59 58 61 63 66 69 73 76 78 79 79 76 74 70 68 66 64 62 57 50 47 46 46 47 48 49 50 49 45 42 39 37 34 31 31 33 37 39 41 42 44 46 48 49 49 47
46 46 46 47 50 51 50 47 47 48 49 52 54 56 57 57 57 57 57 58 58 59 60 59 56 53 52 51 51 54 56 56 54 49 44 41 39 39 38 37 37 39 41 43 44 44 45 45 47 50 52 50 48 47
46 47 48 48 49 47 45 44 42 43 45 45 47 48 50 52 55 55 58 60 63 62 61 60 59 59 61 63 65 62 57 50 45 42 40 42 44 43 43 45 46 47 47 47 46 46 47 48 50 51 51 48 47 45
46 44 41 40 41 42 42 39 40 43 46 48 51 55 58 60 62 65 65 66 67 67 66 66 69 70 70 66 58 49 46 45 45 46 46 45 44 44 45 46 47 47 46 46 46 46 48 48 48 47 46 45 45 45

GFSWCAN_prec_cthk_033.txt.gz
RH
60 62 63 62 69 74 80 85 87 87 95 97 98 94 91 82 88 92 86 65 61 64 53 45 45 42 50 55 56 47 46 45 40 40 48 43 48 39 37 35 39 43 48 53 50 58 52 29 29 32 38 31 32 32
66 75 74 85 87 91 97 96 98 95 97 98 87 86 86 83 88 95 81 64 56 56 54 46 40 40 46 57 58 49 43 38 35 39 43 50 50 45 41 42 35 41 38 43 37 42 39 33 32 32 33 33 36 37
93 95 98 97 95 97 96 91 96 98 96 91 89 87 85 80 86 89 79 63 55 55 58 52 47 37 37 44 46 46 42 37 37 39 42 46 51 41 50 41 42 37 36 36 34 33 36 35 36 37 38 40 42 44
97 98 96 96 95 96 96 97 94 91 90 88 85 83 78 75 81 84 78 61 58 54 63 58 48 44 35 35 39 40 36 38 40 44 45 46 50 41 44 42 39 41 38 38 39 37 38 41 46 44 45 48 53 57
98 97 97 96 97 95 92 91 88 86 83 79 76 74 76 74 83 86 68 59 54 57 58 58 51 46 40 36 34 38 44 41 44 50 50 51 45 45 46 45 45 40 44 46 47 44 44 47 51 51 55 59 62 65
98 98 96 94 91 88 86 84 81 78 76 73 70 70 70 71 84 81 74 62 61 65 66 65 56 53 49 45 41 44 47 50 52 52 53 50 48 50 56 50 50 46 44 45 49 51 54 56 57 60 62 64 63 63
94 92 91 91 89 84 78 75 74 72 71 70 70 69 70 80 84 78 62 63 79 75 72 65 61 60 60 55 55 60 63 61 56 57 57 57 53 53 58 56 54 50 50 52 54 59 66 65 67 67 66 67 70 74
91 92 95 97 98 94 87 82 77 72 70 73 73 73 76 82 80 67 64 85 82 73 74 75 73 72 68 71 69 62 63 62 62 61 61 61 60 62 64 55 55 56 59 62 64 65 66 68 68 70 75 78 81 83
92 91 90 88 95 93 92 87 77 76 77 71 69 69 74 83 78 70 75 85 74 72 63 64 75 75 75 70 69 70 67 68 66 67 67 63 63 61 57 59 63 65 66 65 66 66 68 70 76 81 84 83 83 83
90 90 88 91 87 90 94 92 86 82 82 79 78 78 78 77 72 71 76 82 77 68 64 64 65 63 66 70 69 65 64 64 60 58 58 63 62 62 67 69 66 64 65 68 67 73 79 84 86 86 87 85 83 79
90 90 91 90 89 86 86 89 88 84 82 77 76 82 89 91 92 86 84 80 75 70 67 68 64 61 61 62 62 62 62 64 67 65 70 68 66 69 71 68 65 65 70 76 82 84 84 84 83 81 80 78 71 64
92 92 91 94 93 90 83 79 78 78 78 79 81 87 87 81 79 83 81 76 72 71 68 66 64 61 60 61 63 67 70 70 74 72 77 75 70 70 67 68 75 81 83 84 85 84 83 81 80 75 65 59 48 39
94 92 90 91 92 91 90 85 82 75 75 75 75 76 78 79 85 85 79 73 68 65 64 64 65 66 68 69 75 79 84 87 80 82 77 71 67 67 72 81 88 90 89 88 86 81 73 66 59 55 45 39 39 33
92 93 94 93 92 92 91 91 90 88 86 87 90 90 88 88 84 81 77 77 79 79 81 81 81 83 83 84 85 87 84 82 82 78 70 69 75 84 91 93 93 91 85 84 80 73 62 53 48 43 40 37 34 31
90 89 89 89 90 90 89 90 89 90 91 94 93 96 92 87 86 87 87 86 84 83 82 80 77 76 77 79 80 84 87 87 81 81 83 87 91 94 95 95 92 86 85 85 74 61 54 48 47 44 38 34 33 32
92 92 91 91 91 90 88 88 88 91 95 96 96 94 92 93 92 89 86 85 85 81 76 74 78 83 87 88 88 87 86 84 86 89 93 96 98 98 97 94 92 90 87 74 63 54 51 47 40 35 36 37 33 31
83 81 86 91 93 92 91 91 94 96 97 95 96 96 96 94 94 91 89 88 88 89 91 92 93 94 92 92 95 94 97 96 96 95 95 95 96 95 93 90 85 77 67 61 58 50 41 39 40 40 39 39 37 40
66 70 77 80 78 80 89 93 96 95 96 96 95 94 94 97 98 98 97 98 98 98 98 98 96 98 98 98 95 94 93 93 93 91 91 90 88 86 83 78 67 60 57 51 47 46 45 43 44 46 47 46 48 50
44 55 63 65 61 61 70 76 86 92 94 93 93 95 95 96 96 96 96 96 97 97 98 97 97 97 97 96 95 93 91 88 85 82 79 76 71 66 61 56 53 54 55 56 56 54 51 48 50 53 54 51 52 57
36 38 38 40 37 45 60 68 72 81 88 93 92 92 92 93 93 93 92 93 93 93 94 96 97 97 96 91 85 79 74 69 64 63 61 60 58 57 60 63 63 63 63 62 60 58 59 60 62 59 57 56 61 63
18 20 23 26 30 34 45 52 59 65 70 75 76 76 78 79 77 77 78 77 74 75 77 77 75 73 73 72 67 63 63 61 60 60 58 59 62 65 68 69 70 70 71 73 71 68 68 69 66 63 64 67 62 53
9 12 16 18 23 30 39 44 49 51 54 58 60 60 62 63 64 65 66 64 65 65 63 63 62 62 61 61 62 64 65 66 66 66 69 71 72 74 74 74 74 76 78 76 75 75 75 72 71 70 67 57 44 43
8 8 11 15 19 27 39 39 38 42 45 45 46 46 48 48 48 49 53 55 58 60 61 61 61 61 63 65 67 69 71 73 74 75 76 77 79 80 80 84 84 83 84 84 83 81 78 76 72 58 46 42 42 38
9 11 14 21 26 31 33 38 39 40 42 44 43 45 46 47 47 49 50 52 55 56 57 59 62 63 66 68 71 74 75 76 78 79 80 84 88 89 91 93 94 93 90 86 83 79 72 58 45 43 40 35 35 33
18 28 29 31 33 35 40 44 44 44 47 49 50 53 54 54 54 55 55 59 61 63 64 66 68 69 72 74 77 78 80 81 83 88 91 93 96 98 98 96 92 89 83 76 67 53 45 42 39 34 29 34 33 33
36 40 40 43 44 43 44 46 47 49 51 54 57 58 61 62 61 63 65 70 72 72 73 74 76 78 79 83 87 88 90 94 97 98 98 98 98 98 96 92 84 77 58 48 45 42 37 32 29 29 33 34 33 34
48 50 50 50 52 51 54 55 55 57 59 62 64 65 67 67 68 72 73 74 75 78 81 83 86 88 90 93 94 98 98 98 98 98 97 93 86 79 69 56 48 46 44 41 37 33 30 30 32 36 35 35 37 41
54 57 56 60 60 61 62 64 67 69 71 71 73 73 74 75 77 78 79 80 82 84 85 87 89 90 92 94 96 97 97 94 87 79 72 60 50 47 47 46 45 43 39 35 32 31 32 33 35 38 39 42 45 46
59 58 58 57 57 57 58 60 62 63 63 65 69 70 71 74 76 78 80 81 82 83 83 83 83 83 81 78 74 68 61 53 49 46 50 54 55 56 49 44 40 37 35 35 36 37 39 39 40 42 44 46 46 46
49 49 48 49 49 50 52 54 53 52 52 55 56 57 59 62 64 65 67 68 68 66 65 63 63 62 61 58 55 47 47 49 51 53 55 56 53 46 42 42 42 42 42 45 45 46 46 46 46 48 48 47 48 49
44 46 45 46 48 51 50 48 46 45 46 48 51 53 54 54 54 54 55 56 57 57 58 59 58 57 55 53 55 59 66 63 61 56 50 46 43 43 48 47 47 48 47 47 46 46 47 46 48 48 49 49 50 50
45 43 42 40 42 40 39 41 42 44 45 46 48 49 52 54 56 57 58 60 62 65 65 67 67 62 63 67 68 68 63 54 49 46 46 47 48 47 45 42 41 41 40 41 42 44 44 45 46 47 48 48 48 46
38 38 37 40 40 41 42 41 43 43 45 47 50 54 57 59 61 62 63 65 66 66 65 67 69 71 71 67 59 52 50 49 48 46 41 37 36 37 38 39 41 43 44 44 44 44 44 46 47 47 48 47 47 46

GFSWCAN_prec_cthk_036.txt.gz
RH
70 70 67 71 73 72 73 72 74 78 87 81 63 56 87 88 87 90 88 96 86 88 71 68 64 57 60 56 87 55 50 47 46 45 44 45 50 43 39 38 44 46 54 58 57 64 58 33 32 34 41 37 33 33
52 52 57 62 64 68 66 67 70 79 83 66 48 80 97 91 87 84 78 74 85 92 77 66 65 56 57 63 63 52 43 43 40 43 44 48 52 47 42 43 36 43 39 46 42 48 38 35 34 35 35 34 35 36
62 61 59 61 63 61 66 74 76 75 69 64 74 86 95 96 90 74 94 97 99 95 76 67 70 56 58 69 58 53 53 50 44 43 40 45 50 41 47 41 46 39 38 38 38 33 38 38 37 39 38 41 41 43
71 72 74 78 80 77 71 72 67 81 75 83 87 92 96 93 87 82 86 94 96 72 76 73 59 51 49 51 56 52 55 50 48 43 41 42 47 38 43 40 43 43 40 36 36 36 38 42 47 44 46 46 47 52
92 92 94 94 93 87 83 80 80 88 91 91 91 95 90 91 97 98 93 87 83 72 68 69 58 50 43 41 47 47 52 51 49 46 46 47 42 44 45 42 42 40 40 43 47 45 44 51 48 48 48 50 52 56
98 98 98 98 98 93 87 86 88 91 93 93 97 91 94 95 91 94 95 79 71 63 58 72 66 57 47 43 42 45 52 52 50 49 51 48 45 47 52 49 46 44 43 45 50 50 51 49 48 51 56 60 64 63
98 98 98 97 97 97 95 91 89 93 93 94 94 93 91 96 95 94 81 71 68 69 65 69 70 63 56 51 49 47 50 55 54 52 50 51 50 54 55 57 53 49 51 51 49 52 53 55 58 63 65 64 62 63
99 99 97 94 94 96 94 91 90 90 88 89 90 92 95 92 97 93 84 76 69 70 73 74 73 66 60 61 58 53 54 56 57 57 59 62 59 61 63 57 55 54 53 52 52 56 61 66 67 67 66 66 69 72
92 97 95 90 88 86 85 85 86 88 90 92 92 93 95 98 96 88 85 78 77 76 81 76 71 68 64 64 61 62 61 65 64 71 71 67 67 66 61 59 56 58 57 59 62 64 66 67 67 68 69 74 78 78
98 96 94 94 92 88 85 84 83 85 85 87 90 94 97 95 91 88 88 79 84 83 77 78 74 71 67 71 71 69 75 77 72 72 70 69 67 62 64 58 59 62 64 65 68 69 69 69 70 75 81 82 80 77
95 94 96 94 94 95 92 88 87 88 89 90 92 93 95 92 88 87 84 80 91 88 75 77 78 80 77 82 80 78 78 77 74 69 69 66 60 57 62 65 69 69 71 70 67 69 72 76 80 80 81 81 73 64
94 94 94 93 91 93 96 92 87 86 85 86 87 92 89 87 89 84 83 86 93 88 78 76 73 73 75 74 76 79 71 66 67 63 67 65 62 65 72 75 75 73 72 69 72 76 79 83 83 83 80 65 58 50
94 95 94 93 94 93 89 93 89 86 85 85 84 85 88 88 94 89 87 87 84 81 79 76 75 72 70 68 67 67 69 73 66 73 67 67 70 77 79 75 71 70 71 75 81 85 86 86 79 68 61 57 52 42
96 96 95 94 89 92 91 86 84 83 83 84 89 93 97 97 95 93 91 86 83 80 78 76 75 72 71 70 70 71 75 74 78 78 72 78 80 77 74 75 80 85 88 88 88 83 75 72 68 61 53 47 40 37
91 93 94 93 94 92 87 85 84 84 89 93 94 96 94 92 91 90 88 85 83 82 82 81 77 74 79 81 86 88 90 90 84 78 75 76 79 84 89 92 94 92 90 89 86 80 73 70 65 55 46 42 39 33
86 86 88 92 93 92 92 93 93 92 95 97 96 96 94 94 94 93 92 91 90 90 88 86 88 88 89 88 85 84 83 80 81 82 84 83 88 95 97 96 93 91 93 92 82 73 68 65 57 47 41 37 34 34
78 88 89 89 89 91 89 89 92 94 97 97 97 98 98 97 95 93 92 94 95 94 93 91 92 90 85 84 85 87 90 91 92 92 96 98 98 98 97 97 96 94 89 81 75 70 61 51 45 42 41 39 40 42
69 73 72 74 82 87 87 90 89 91 96 97 97 98 98 98 97 98 98 97 94 93 91 91 91 94 96 97 96 96 97 98 98 97 96 96 96 96 94 92 88 84 79 74 65 58 52 50 49 47 46 47 51 52
54 60 63 59 56 63 85 92 95 96 97 98 97 97 97 98 98 97 98 97 98 98 98 98 98 98 98 98 98 98 98 97 95 94 94 92 92 90 85 80 77 74 66 61 59 58 58 57 55 53 54 55 57 59
33 37 40 38 40 50 64 83 91 95 96 97 97 97 97 97 97 97 97 97 96 97 97 97 97 97 98 98 98 98 97 95 91 89 86 81 78 78 73 67 63 62 64 66 66 67 66 65 64 63 63 61 64 61
19 20 21 22 29 39 55 62 68 77 84 91 94 91 92 94 93 93 95 93 90 95 97 97 97 98 97 96 96 93 88 85 82 79 76 72 67 65 66 67 69 71 73 74 75 74 73 72 71 68 66 67 68 69
8 9 13 17 24 30 42 48 53 56 65 70 70 70 72 74 75 76 78 77 79 79 79 80 80 79 78 77 77 75 74 73 72 71 69 69 69 70 74 76 78 78 79 79 80 82 82 79 77 74 73 73 66 56
7 7 9 13 16 25 37 40 41 46 48 52 53 53 56 57 59 61 62 64 66 67 68 67 67 67 68 68 69 70 70 71 73 76 76 76 77 77 77 78 80 82 86 87 85 87 86 83 82 77 69 55 48 45
9 12 16 23 26 32 33 37 40 41 43 44 43 45 47 47 47 48 49 53 56 57 58 59 60 61 62 64 67 68 69 71 74 77 78 79 81 82 84 88 89 91 93 92 91 88 86 80 70 60 51 44 41 36
16 28 28 32 34 36 37 41 42 41 46 50 52 51 52 51 52 53 56 58 58 59 60 59 60 62 63 65 68 71 74 77 79 81 84 87 88 90 93 97 98 94 91 87 84 80 70 58 53 47 39 37 35 35
34 38 38 39 41 40 43 44 46 50 52 53 55 55 57 58 58 62 63 65 65 66 67 69 70 72 74 74 77 80 83 87 88 90 95 98 98 98 98 98 95 90 81 72 60 54 53 48 41 37 37 37 38 39
43 45 46 47 46 47 50 52 54 56 58 61 61 62 64 65 66 69 70 70 70 71 72 74 75 76 79 82 84 86 89 91 93 94 95 93 90 86 83 78 69 59 54 52 48 41 36 34 36 39 41 42 43 43
50 54 52 55 57 56 58 60 62 64 66 65 69 66 68 70 73 75 76 77 77 78 79 80 81 83 85 87 88 90 91 89 85 80 78 75 66 60 57 54 52 48 44 41 38 38 40 42 43 45 47 47 48 48
53 53 52 51 48 49 52 55 56 57 56 55 57 58 60 64 64 65 66 66 66 67 68 69 70 71 71 69 63 59 54 52 50 49 54 56 59 58 54 48 47 46 47 47 48 49 48 48 49 48 47 45 43 43
46 46 44 45 47 52 51 51 50 47 46 48 49 52 55 57 59 60 62 62 61 61 61 61 60 61 60 59 56 53 50 52 55 57 58 59 54 48 47 50 51 50 50 49 49 48 46 44 40 39 40 42 43 45
44 43 43 43 45 45 45 44 42 42 41 42 44 45 47 50 50 52 54 55 57 58 60 61 62 61 61 58 62 66 69 66 62 57 52 49 48 49 52 50 49 47 45 43 40 39 40 40 40 41 42 43 44 45
38 37 36 40 44 38 39 42 43 49 50 46 44 46 49 51 51 54 56 59 62 64 66 67 67 67 66 67 65 64 58 54 50 48 47 45 42 39 37 36 36 38 39 40 42 43 44 44 44 45 46 47 48 49
37 38 39 39 45 48 43 44 47 49 50 51 51 54 56 59 62 62 63 65 66 66 66 66 67 66 64 59 53 48 45 43 38 35 33 32 32 33 34 36 38 40 42 44 46 47 48 49 49 50 51 53 53 54

GFSWCAN_prec_cthk_039.txt.gz
RH
86 81 76 81 79 81 86 85 90 90 96 96 88 86 74 57 57 66 78 74 81 85 84 77 66 55 67 63 64 66 83 78 72 58 60 45 44 37 49 50 51 50 60 60 64 64 55 35 33 35 38 35 35 34
80 82 85 84 89 85 86 93 91 90 97 98 94 82 66 53 47 67 91 80 68 79 87 83 66 56 62 57 60 67 79 76 61 50 43 44 44 46 44 51 41 46 42 46 45 47 36 32 33 35 35 36 38 38
71 76 79 78 81 88 80 79 85 86 87 90 85 71 56 41 64 75 88 94 91 93 91 88 75 70 67 62 56 62 63 76 50 39 42 45 49 43 48 46 39 39 38 42 40 39 37 38 36 36 34 36 38 39
58 61 67 71 72 70 73 72 74 76 80 83 72 60 47 45 80 78 81 91 95 98 99 89 82 77 70 69 57 56 71 74 59 45 42 43 44 39 44 38 42 41 40 40 40 43 42 44 43 43 43 41 43 44
62 64 62 56 61 67 68 65 66 72 78 74 64 51 50 80 78 81 88 92 90 97 95 98 88 81 78 74 70 65 81 67 54 50 49 45 40 40 41 42 45 41 41 40 44 38 38 46 45 45 47 50 49 49
80 63 61 62 60 59 58 65 68 69 66 62 55 78 77 93 92 96 98 96 98 94 97 98 91 79 79 81 79 73 71 66 57 54 53 46 43 40 49 54 45 43 41 40 42 42 44 49 52 53 51 51 54 58
90 88 93 85 74 76 69 65 64 60 59 63 72 72 81 87 87 95 95 95 86 99 96 91 84 87 79 68 70 73 70 62 57 57 56 51 49 49 52 54 48 48 48 47 50 49 53 52 54 55 56 59 60 60
98 91 85 86 83 76 76 71 71 72 72 79 82 80 88 87 96 98 97 95 92 83 75 80 78 71 67 62 59 57 58 56 58 58 57 57 55 54 56 52 53 53 52 52 52 51 52 56 60 63 64 63 63 63
98 93 88 89 90 88 85 82 85 87 84 82 90 94 98 96 98 96 90 86 76 73 74 77 78 80 71 68 65 63 59 62 59 65 63 61 63 61 57 57 60 58 54 58 58 59 62 66 68 68 70 69 67 70
98 96 93 93 90 85 85 85 78 85 89 97 97 98 98 99 94 82 76 75 73 75 72 79 75 78 72 71 71 68 63 63 63 63 63 68 66 65 68 68 67 62 59 60 63 67 70 70 70 72 72 75 76 75
98 97 94 94 94 89 89 92 91 95 97 89 98 97 86 79 76 80 81 76 71 73 71 77 83 82 76 78 74 70 71 69 70 70 71 71 70 70 72 70 69 66 68 69 70 72 73 73 74 77 79 76 77 77
98 97 96 96 94 93 93 91 91 90 94 90 89 90 90 88 83 78 78 75 74 77 74 80 89 87 84 77 80 80 74 77 79 74 80 72 67 67 67 69 69 70 73 74 77 77 77 77 78 79 80 80 72 67
97 97 97 99 98 97 97 97 97 97 94 93 92 93 92 89 89 84 82 83 79 81 84 86 94 92 90 84 82 86 88 86 78 77 71 70 69 68 69 71 73 77 77 77 78 78 79 82 86 87 78 75 70 66
95 95 96 95 98 96 98 97 93 91 88 88 91 93 92 96 92 89 83 83 83 84 85 88 88 85 84 84 80 77 80 79 80 76 70 70 71 73 74 77 81 79 78 81 83 87 91 90 84 79 77 74 68 63
93 96 96 94 96 95 93 91 90 85 84 87 87 93 92 90 89 89 88 91 88 90 91 94 91 87 84 81 80 80 81 78 76 74 74 77 82 84 81 79 80 82 86 90 89 84 83 80 77 76 73 67 61 52
85 88 90 95 93 90 89 90 88 87 92 93 90 91 88 86 89 92 96 97 94 93 91 88 88 86 87 87 85 84 81 82 85 88 88 84 81 81 86 92 93 94 97 95 91 86 83 81 77 71 67 58 46 38
79 80 87 88 87 87 88 89 94 97 98 97 97 97 97 96 96 97 97 96 96 95 94 93 93 96 94 96 96 96 95 94 93 88 86 91 95 96 98 97 97 98 97 95 88 86 85 80 71 64 55 44 42 43
68 71 76 83 83 84 86 90 93 95 97 98 98 98 98 98 98 98 98 98 98 98 98 98 98 98 98 97 97 95 93 93 97 98 98 98 97 97 98 97 97 97 97 93 88 82 75 71 62 53 51 50 50 51
53 55 53 56 73 81 80 86 88 95 97 97 97 97 97 98 98 98 98 98 98 98 98 97 97 97 97 97 98 98 98 98 98 98 97 98 98 98 96 97 97 95 90 84 79 74 67 61 60 62 61 59 57 59
29 30 31 35 41 60 83 94 92 95 97 98 97 97 97 97 97 96 96 97 96 96 96 96 97 97 97 97 98 98 98 98 96 96 98 97 96 95 95 91 87 85 83 76 71 71 70 71 72 72 70 69 68 67
15 17 20 23 30 43 62 70 84 96 97 97 98 97 97 96 96 95 91 89 90 96 97 97 97 97 97 98 98 98 98 98 95 92 91 91 90 86 84 84 81 77 76 77 78 78 78 79 78 75 73 75 73 72
6 6 8 13 22 34 45 51 59 64 70 77 80 81 84 85 87 87 82 86 92 94 95 96 96 96 97 97 98 97 96 94 92 89 87 86 83 79 77 77 78 80 80 80 80 81 82 83 78 78 76 75 76 77
6 6 8 12 16 24 36 38 42 47 55 58 58 59 62 65 68 69 70 75 78 81 82 83 83 84 85 85 85 86 85 82 79 77 76 77 78 78 78 80 82 82 82 84 85 87 86 82 81 80 82 79 71 58
8 12 15 22 26 32 31 37 38 38 38 42 44 48 50 51 52 48 55 57 60 60 60 61 60 60 61 62 64 66 69 70 73 75 77 78 79 80 83 86 87 88 88 89 89 87 89 86 84 80 74 61 51 48
15 28 27 31 32 35 38 39 41 40 46 47 45 48 50 49 49 54 55 59 59 60 61 61 60 61 63 64 66 69 70 71 74 77 78 80 83 87 88 89 90 93 95 92 88 85 82 79 74 63 53 47 45 44
34 38 37 37 40 41 43 44 46 49 50 50 54 53 56 56 59 64 64 66 66 66 66 67 68 69 70 72 74 76 78 79 80 82 83 86 89 91 92 93 91 88 84 83 81 76 67 56 47 42 40 41 43 44
44 47 47 47 48 50 50 52 53 52 56 61 61 62 66 68 68 71 72 72 72 72 73 74 75 75 77 78 79 80 81 82 83 84 84 84 83 82 80 77 75 71 63 56 49 44 41 39 39 41 43 45 48 49
47 52 53 49 47 48 55 57 60 63 62 60 64 64 65 67 70 70 70 68 69 69 68 68 69 71 72 73 73 73 73 71 69 65 62 60 58 57 55 52 49 46 44 43 42 42 43 44 46 48 49 49 49 49
49 48 48 47 40 42 47 51 53 51 50 51 53 56 58 59 60 60 61 61 61 62 63 64 63 61 62 60 54 51 50 49 49 51 53 57 59 55 52 51 51 50 48 47 47 48 49 49 49 48 46 44 42 40
42 42 43 41 43 49 49 48 46 43 41 41 42 46 49 52 53 54 55 56 56 55 55 56 58 58 59 58 58 57 59 61 60 59 58 56 54 51 48 49 47 45 44 44 43 42 41 40 40 40 41 41 42 44
40 39 38 37 40 39 40 40 41 42 42 41 42 42 46 49 50 52 54 55 56 56 59 61 58 58 59 62 64 64 63 58 54 51 49 46 43 41 39 37 36 36 36 37 37 38 40 41 43 44 45 46 48 50
32 33 36 42 41 39 40 43 45 50 50 47 47 47 51 53 56 58 61 61 62 64 66 66 65 65 63 60 57 53 49 46 41 38 34 32 31 30 30 32 34 37 40 44 47 50 53 56 58 59 59 60 62 63
38 36 36 38 46 50 44 46 55 56 58 60 61 62 63 65 66 66 67 67 66 67 66 65 63 62 57 47 41 37 34 33 31 30 30 32 36 42 48 53 57 60 63 67 70 72 75 77 78 79 79 80 81 82

GFSWCAN_prec_cthk_042.txt.gz
RH
98 97 94 91 86 80 74 69 63 57 56 56 55 53 51 65 70 63 55 68 74 71 70 74 57 40 44 44 44 57 66 63 71 71 75 70 62 57 54 47 40 39 56 62 65 62 48 35 36 37 38 40 39 37
93 93 92 86 80 78 75 70 66 66 63 66 64 58 55 67 72 62 61 77 85 66 94 89 67 46 48 44 45 58 56 56 65 73 68 66 66 70 52 51 39 50 43 48 50 49 40 36 34 34 33 33 35 36
87 84 81 82 81 76 75 75 80 85 80 75 73 69 70 70 70 65 63 67 83 85 97 88 79 65 51 44 51 65 69 66 65 63 79 69 60 60 47 41 41 40 38 41 40 44 38 36 35 35 35 36 38 39
89 89 87 88 85 82 86 87 87 87 79 78 91 89 84 86 77 57 66 80 76 69 86 93 83 67 54 46 56 68 68 64 65 80 80 69 57 46 38 36 38 35 37 40 49 48 44 43 39 37 38 40 43 43
78 85 91 95 89 88 88 90 88 98 90 91 97 90 87 82 70 55 88 97 93 65 75 89 91 82 66 60 60 66 73 65 64 69 81 68 63 51 40 38 40 36 37 40 45 42 42 45 45 46 46 49 49 48
61 67 75 83 84 78 77 80 84 89 96 97 92 86 78 72 60 57 81 82 93 89 85 82 81 87 70 66 76 73 76 66 59 63 80 77 63 46 42 46 36 35 35 36 41 41 41 45 48 51 52 53 53 53
60 58 67 68 69 72 70 73 82 88 95 91 83 77 68 57 46 70 82 73 76 78 95 98 95 91 95 95 93 86 77 64 62 75 79 73 63 49 48 49 42 40 40 40 40 41 48 49 54 55 56 57 57 59
83 66 55 57 63 66 64 66 76 86 81 78 68 64 67 69 86 97 97 99 97 99 97 97 98 95 97 96 96 97 93 79 85 86 76 67 63 59 57 51 50 48 47 48 49 49 51 55 59 60 60 60 63 66
89 82 71 57 54 56 59 64 69 68 63 61 62 68 81 89 86 87 93 98 98 98 98 98 98 93 93 94 87 91 92 94 87 86 79 74 73 71 61 54 53 55 53 56 58 57 59 60 62 63 65 69 70 71
93 88 81 71 64 55 54 57 53 50 55 80 93 95 92 86 94 97 99 99 98 97 95 93 94 98 94 86 84 81 83 85 84 85 83 80 73 65 63 62 63 64 67 68 65 65 65 67 70 72 73 76 74 73
91 90 82 76 63 63 67 67 70 77 90 93 99 98 98 97 98 97 98 98 91 80 78 82 81 79 80 80 77 75 77 76 74 70 73 73 73 67 67 67 67 71 75 71 69 69 70 73 77 78 80 78 80 78
94 93 89 86 69 70 74 80 86 84 88 86 90 97 98 98 98 96 94 85 79 76 72 74 75 75 78 77 81 78 76 73 75 73 73 70 65 67 72 75 80 79 76 74 75 77 79 81 80 79 80 80 80 78
95 91 89 91 92 86 81 89 98 99 96 95 97 96 95 93 93 92 92 89 86 81 80 81 83 84 83 80 86 82 82 84 78 80 79 73 73 75 81 79 76 75 75 78 80 82 82 82 82 83 85 85 79 76
96 96 93 91 94 97 95 96 97 92 89 95 94 96 94 92 92 90 86 81 79 79 83 83 90 96 95 93 89 86 87 88 89 84 79 78 82 82 80 79 77 79 80 83 83 83 83 85 87 89 84 82 77 75
97 95 95 97 92 92 93 95 91 89 89 94 95 96 93 92 91 91 92 88 85 82 84 90 90 89 93 93 93 89 88 86 84 83 84 82 81 82 83 85 86 85 84 84 85 87 91 95 95 90 85 80 79 75
95 94 94 93 91 90 93 90 86 85 86 91 94 97 95 92 88 88 88 88 90 91 91 88 90 89 93 92 90 90 87 88 87 86 85 85 85 88 87 86 86 89 91 93 96 96 95 91 88 85 84 81 78 74
88 91 92 95 92 89 88 87 89 91 94 95 95 95 92 96 95 92 92 95 98 95 95 92 92 95 95 95 95 95 94 93 93 92 92 96 95 93 92 93 95 96 96 96 97 95 92 88 87 87 83 79 72 63
77 86 89 88 86 84 85 86 89 89 92 94 94 95 95 96 95 94 95 97 99 98 96 94 97 96 96 96 97 98 98 98 98 98 97 98 97 97 97 97 98 97 97 97 95 93 92 92 90 86 80 72 66 61
55 58 71 78 78 79 86 93 91 95 97 96 94 94 94 94 94 95 94 94 95 97 97 97 96 97 97 97 97 98 98 98 98 97 97 95 95 97 98 98 98 98 97 97 97 97 95 89 84 79 75 70 67 66
35 39 43 55 73 74 80 86 89 94 97 98 97 97 95 96 97 96 96 96 96 95 96 96 97 97 97 97 97 97 97 98 97 97 98 98 98 98 98 98 98 98 98 98 94 88 86 84 81 79 76 72 70 70
15 19 24 30 48 70 85 92 94 95 97 96 97 96 97 93 92 92 91 90 89 96 96 97 97 97 97 98 98 98 98 98 98 98 98 98 98 98 98 98 98 94 92 90 88 85 82 82 82 80 75 74 74 76
5 5 6 12 23 37 51 63 70 76 85 93 91 88 90 91 88 82 84 87 93 97 97 97 97 97 97 97 97 97 98 98 98 98 98 97 97 96 94 92 91 88 85 83 82 83 84 85 86 86 84 81 80 78
5 6 9 13 16 26 36 39 42 48 55 59 63 67 70 73 77 70 79 82 86 88 90 92 94 96 96 97 97 97 96 96 95 93 91 90 89 88 87 85 84 84 86 87 88 88 88 88 89 87 84 84 82 80
7 12 17 23 26 32 33 38 40 39 44 44 45 50 53 58 50 53 64 68 71 72 72 73 73 71 72 73 73 75 76 79 79 80 80 79 79 79 82 84 86 86 88 88 89 91 92 90 87 86 84 81 78 72
15 27 24 30 31 33 37 38 39 39 45 44 45 50 53 49 50 55 57 59 60 62 63 63 63 63 64 65 65 66 68 69 70 72 75 78 80 81 84 85 87 89 90 89 85 85 83 83 82 79 74 68 60 49
34 38 37 35 40 39 43 44 47 52 51 50 53 54 58 56 59 65 65 67 66 67 68 68 67 67 67 68 69 69 71 72 73 74 77 80 82 84 85 85 85 85 83 82 81 79 75 68 60 52 45 43 43 45
43 45 45 46 46 44 47 50 50 51 55 59 62 62 63 64 68 70 71 71 71 71 72 72 71 70 69 69 68 68 67 68 69 70 70 68 66 65 64 61 60 58 54 52 49 47 47 46 46 46 46 47 48 48
50 53 50 47 44 44 48 48 52 54 54 54 56 57 59 61 64 65 65 65 64 62 61 61 61 61 59 58 59 60 58 55 54 54 54 54 54 54 52 52 51 51 52 52 52 51 49 48 47 47 46 45 45 45
44 41 36 36 36 38 44 48 47 46 46 48 50 53 56 57 58 58 58 58 59 59 57 55 56 56 55 52 48 47 49 51 55 56 57 56 55 54 52 51 50 48 47 45 43 42 42 40 40 39 40 40 40 41
41 37 34 35 38 42 43 41 40 39 39 38 39 44 48 50 52 53 54 55 56 56 55 56 57 59 60 55 56 58 59 57 55 53 50 47 44 41 38 36 34 33 33 34 35 37 40 43 45 47 49 52 53 55
36 34 34 36 38 39 40 41 41 41 42 40 41 44 47 51 54 56 56 57 60 61 61 61 59 60 59 58 57 54 51 48 44 40 36 33 31 30 31 33 37 41 45 49 53 56 60 62 65 67 69 72 73 73
31 34 36 39 41 42 46 50 51 52 54 53 55 56 59 60 63 65 65 65 66 67 65 64 64 62 58 52 45 39 35 32 30 30 31 34 39 43 46 49 51 53 54 54 54 55 55 57 60 63 66 70 75 78
37 35 37 40 44 47 45 48 55 58 62 63 65 67 67 67 68 69 68 68 68 66 62 58 52 45 38 35 33 31 32 35 39 41 43 45 46 46 46 45 44 44 45 48 52 55 58 61 64 67 71 73 74 76

GFSWCAN_prec_cthk_045.txt.gz
RH
98 98 98 98 98 98 98 98 96 89 77 68 53 54 56 64 75 78 79 67 62 59 58 63 57 57 45 38 37 33 48 57 70 72 87 75 73 63 58 51 50 59 68 62 59 51 49 36 38 36 33 38 41 43
97 98 98 98 98 98 98 98 97 88 77 63 53 63 67 76 87 87 88 72 63 65 77 59 55 49 40 41 43 36 45 51 57 66 78 80 74 68 63 64 52 52 49 48 40 42 41 40 36 35 37 40 43 42
97 97 97 98 97 97 95 90 83 77 66 53 56 59 58 73 86 85 88 74 74 71 71 71 60 57 44 34 41 47 51 56 61 59 78 79 74 66 64 55 52 52 45 37 39 42 43 41 39 36 35 35 37 36
92 91 90 88 85 79 72 66 61 59 59 59 60 59 59 60 73 84 84 73 70 67 64 61 60 57 61 53 47 49 46 61 70 79 81 80 73 66 70 61 56 55 38 37 41 38 37 36 35 35 35 35 36 39
88 87 85 79 80 82 81 78 75 73 69 63 58 55 56 62 65 68 71 76 76 76 78 87 66 82 73 54 52 53 52 59 72 78 75 69 69 71 70 65 57 48 32 36 39 30 34 37 39 37 37 38 41 43
92 90 89 86 81 85 84 82 79 78 73 74 73 68 57 53 60 68 91 86 87 82 74 97 83 83 91 73 61 55 49 58 66 73 78 75 74 70 76 72 54 45 30 30 34 35 37 42 43 42 43 45 49 51
89 91 86 83 87 90 89 87 80 85 80 81 79 70 70 76 70 61 72 68 66 82 92 98 93 92 97 82 73 63 61 67 76 80 87 80 76 70 78 71 60 50 36 34 36 39 45 44 45 47 50 53 56 57
79 87 84 80 81 84 86 86 91 91 97 92 93 97 95 95 91 73 69 80 73 86 97 97 93 90 89 95 88 77 76 82 88 91 89 84 78 74 74 66 62 58 47 46 45 44 42 46 52 55 56 58 62 65
60 67 72 69 70 71 76 83 87 92 89 95 95 90 89 82 68 64 86 72 65 69 75 81 84 87 86 94 90 89 91 94 91 92 92 89 80 74 62 63 66 61 52 52 52 51 54 57 61 62 65 67 67 70
51 51 55 56 55 59 67 83 89 92 88 82 77 73 77 65 68 96 93 94 94 91 78 76 80 85 99 99 95 93 94 97 98 98 96 89 84 78 75 70 71 69 67 63 62 65 67 72 72 71 71 71 73 77
46 45 46 46 47 50 59 64 62 62 66 63 87 93 70 91 90 94 98 98 98 97 86 92 99 96 97 97 98 98 98 98 97 97 96 97 92 81 79 76 75 73 70 68 68 71 80 81 81 82 81 79 81 84
57 40 35 34 35 42 55 67 69 74 75 79 89 84 84 85 90 97 98 99 98 97 97 98 98 96 97 98 98 97 94 92 89 85 88 88 76 76 79 80 78 76 74 72 77 86 92 89 87 85 85 86 88 88
51 48 66 78 77 78 76 88 90 93 98 97 92 91 96 98 99 97 98 96 93 92 93 91 90 86 89 92 94 91 89 83 78 78 76 69 64 65 67 69 71 72 74 85 91 89 87 86 89 88 89 91 90 85
70 64 80 90 90 86 90 98 97 99 98 98 98 98 98 98 97 97 94 91 89 87 87 84 82 79 76 76 79 76 80 77 78 74 72 69 75 80 80 84 86 86 87 87 85 86 88 91 93 94 91 91 87 85
95 89 85 90 95 97 97 98 99 97 98 98 96 94 95 92 93 90 88 87 84 81 79 84 86 87 83 81 78 78 79 78 78 77 79 83 85 89 92 93 90 90 91 91 92 95 95 93 92 92 91 89 87 84
98 98 96 92 93 99 98 96 92 93 94 91 90 91 87 85 87 85 81 81 86 86 87 84 86 87 95 94 92 92 87 89 87 86 87 86 86 88 89 88 89 92 95 97 96 95 95 96 97 96 94 90 86 82
97 95 97 98 97 98 96 93 91 89 91 93 92 92 91 91 88 88 92 91 93 95 96 95 94 95 94 93 94 94 95 96 96 94 93 92 90 92 95 97 98 98 97 97 97 97 97 97 97 96 91 88 86 83
96 96 96 95 95 94 92 94 92 91 95 97 96 96 95 96 96 95 96 96 96 95 95 97 96 97 97 95 96 97 98 98 98 98 97 97 97 97 98 98 98 98 98 98 98 97 97 97 95 92 90 86 84 83
82 87 89 87 88 88 89 91 90 94 97 97 97 97 96 97 97 97 97 97 98 97 97 97 96 96 97 97 97 97 97 98 98 97 97 98 98 98 98 97 97 97 97 98 98 97 97 95 95 94 89 89 89 88
42 53 72 74 72 75 84 92 93 96 97 98 97 97 96 97 95 93 93 94 94 94 95 95 97 97 97 97 97 97 98 98 97 97 98 98 98 98 98 98 97 97 98 98 98 97 97 97 96 96 95 92 90 82
31 36 45 57 67 73 82 88 91 95 97 97 98 96 93 92 92 90 88 87 90 96 97 97 97 97 97 97 97 97 98 98 98 98 97 97 98 98 98 98 98 98 98 98 98 98 98 96 94 92 90 88 84 81
6 8 13 20 31 47 61 72 78 83 89 92 88 88 91 88 82 80 82 85 95 97 97 97 97 97 97 97 97 97 97 98 98 98 98 98 98 98 98 98 98 98 98 97 95 93 91 90 90 89 88 89 89 88
5 6 9 12 17 29 40 43 45 49 56 60 60 64 67 68 67 66 78 82 85 87 91 95 97 97 97 97 98 97 98 98 98 98 98 98 97 96 95 94 93 92 91 90 91 92 92 90 89 89 90 91 91 89
7 11 17 21 24 32 31 37 40 44 45 49 51 54 55 53 46 51 61 65 71 76 80 83 87 88 88 89 89 91 92 94 93 93 91 90 90 90 90 90 88 86 85 87 89 89 89 90 90 90 87 85 82 79
15 25 22 28 29 30 36 38 40 40 43 44 44 50 53 43 48 53 57 59 59 60 61 62 62 62 61 62 63 64 66 67 67 67 70 72 74 76 77 80 82 83 82 82 81 81 81 81 80 77 75 72 71 70
32 38 35 34 38 38 41 44 46 47 47 48 53 55 50 52 57 62 64 67 67 67 68 68 68 68 67 67 66 66 67 68 69 67 69 70 70 69 68 67 66 66 64 64 63 61 59 56 53 52 50 50 50 50
40 41 41 41 43 43 46 45 44 46 50 54 57 58 58 60 64 67 69 71 70 70 69 67 65 62 61 59 59 58 56 54 53 52 51 51 50 48 47 46 46 47 48 48 48 48 48 49 49 48 47 47 47 46
48 48 45 42 41 41 42 41 42 44 45 47 49 53 56 57 60 62 63 64 62 61 61 59 57 53 49 49 50 50 47 46 47 47 48 48 48 48 48 48 48 47 45 42 40 37 37 37 37 37 38 39 40 43
45 41 37 37 37 37 38 39 40 40 40 41 43 47 49 51 54 55 56 57 57 57 57 56 54 53 52 48 46 46 47 49 50 49 47 44 41 38 35 32 30 29 29 30 33 38 43 47 50 53 55 57 60 62
41 37 34 36 36 39 39 37 37 35 33 34 35 41 45 48 51 52 53 54 54 54 55 56 57 58 55 53 53 52 50 46 42 38 35 31 29 27 28 30 34 37 39 41 42 43 44 45 47 49 51 54 57 60
38 31 31 35 39 41 41 38 37 37 38 40 43 46 50 54 56 58 59 60 61 62 63 62 61 59 57 53 50 44 39 34 30 27 27 30 34 36 37 38 38 37 36 35 35 37 39 42 45 48 53 57 62 65
33 35 35 38 41 43 44 48 46 49 51 52 54 56 59 62 65 67 67 68 68 66 64 62 60 55 48 40 33 29 27 29 32 35 37 38 39 39 37 35 34 35 36 38 39 39 40 42 45 49 55 59 64 69
37 34 35 39 44 48 49 52 53 54 55 56 59 62 64 64 64 64 64 65 62 58 54 48 39 34 29 29 31 34 37 38 39 39 39 38 35 33 33 34 36 37 37 34 35 38 40 44 48 51 56 60 64 69